Wetterdaten: Mittwoch, 08.11.2023
Datum Zeit Temp. Aussen Temp. o. S. Temp +5cm Feuchte Auss Luftdruck Regen Sonnenschein Regendauer Solar Windben Empfang
08.11.2023 00:00 8,7 C 7,8 C 4,4 C 89 % 1012,1 hPa 0,0 l/m 0 min 0 min 0 W/m 19,3 km/h (3 Bft) 100,00 %
08.11.2023 00:02 8,6 C 7,8 C 4,4 C 89 % 1012,1 hPa 0,0 l/m 0 min 0 min 0 W/m 19,3 km/h (3 Bft) 94,59 %
08.11.2023 00:04 8,6 C 7,8 C 4,4 C 89 % 1012,1 hPa 0,0 l/m 0 min 0 min 0 W/m 22,5 km/h (4 Bft) 100,00 %
08.11.2023 00:07 8,6 C 7,8 C 4,4 C 89 % 1012,1 hPa 0,0 l/m 0 min 0 min 0 W/m 16,1 km/h (3 Bft) 97,47 %
08.11.2023 00:08 8,6 C 7,8 C 4,4 C 89 % 1012,1 hPa 0,0 l/m 0 min 0 min 0 W/m 22,5 km/h (4 Bft) 100,00 %
08.11.2023 00:12 8,6 C 7,8 C 4,4 C 89 % 1012,1 hPa 0,0 l/m 0 min 0 min 0 W/m 25,7 km/h (4 Bft) 90,91 %
08.11.2023 00:14 8,6 C 7,8 C 5,0 C 89 % 1012,2 hPa 0,0 l/m 0 min 0 min 0 W/m 25,7 km/h (4 Bft) 97,87 %
08.11.2023 00:16 8,7 C 7,8 C 5,0 C 89 % 1012,1 hPa 0,0 l/m 0 min 0 min 0 W/m 16,1 km/h (3 Bft) 95,24 %
08.11.2023 00:18 8,7 C 7,8 C 5,0 C 89 % 1012,1 hPa 0,0 l/m 0 min 0 min 0 W/m 6,4 km/h (2 Bft) 98,08 %
08.11.2023 00:20 8,7 C 7,8 C 5,0 C 89 % 1012,1 hPa 0,0 l/m 0 min 0 min 0 W/m 16,1 km/h (3 Bft) 95,74 %
08.11.2023 00:22 8,7 C 7,8 C 5,0 C 89 % 1012,2 hPa 0,0 l/m 0 min 0 min 0 W/m 16,1 km/h (3 Bft) 97,87 %
08.11.2023 00:24 8,7 C 7,8 C 4,4 C 89 % 1012,2 hPa 0,0 l/m 0 min 2 min 0 W/m 12,9 km/h (3 Bft) 97,87 %
08.11.2023 00:26 8,7 C 7,8 C 4,4 C 89 % 1012,2 hPa 0,0 l/m 0 min 2 min 0 W/m 12,9 km/h (3 Bft) 93,48 %
08.11.2023 00:28 8,7 C 7,8 C 4,4 C 90 % 1012,2 hPa 0,0 l/m 0 min 2 min 0 W/m 16,1 km/h (3 Bft) 97,87 %
08.11.2023 00:30 8,7 C 7,8 C 4,4 C 90 % 1012,3 hPa 0,0 l/m 0 min 2 min 0 W/m 12,9 km/h (3 Bft) 96,00 %
08.11.2023 00:32 8,7 C 7,8 C 3,9 C 90 % 1012,2 hPa 0,0 l/m 0 min 2 min 0 W/m 12,9 km/h (3 Bft) 97,87 %
08.11.2023 00:34 8,7 C 7,8 C 3,9 C 90 % 1012,2 hPa 0,0 l/m 0 min 2 min 0 W/m 16,1 km/h (3 Bft) 97,87 %
08.11.2023 00:36 8,7 C 7,8 C 3,9 C 90 % 1012,2 hPa 0,0 l/m 0 min 2 min 0 W/m 16,1 km/h (3 Bft) 97,87 %
08.11.2023 00:38 8,7 C 7,8 C 3,9 C 90 % 1012,2 hPa 0,0 l/m 0 min 2 min 0 W/m 16,1 km/h (3 Bft) 97,87 %
08.11.2023 00:40 8,7 C 7,8 C 3,9 C 90 % 1012,2 hPa 0,0 l/m 0 min 2 min 0 W/m 16,1 km/h (3 Bft) 97,87 %
08.11.2023 00:42 8,6 C 7,8 C 3,9 C 91 % 1012,2 hPa 0,0 l/m 0 min 2 min 0 W/m 12,9 km/h (3 Bft) 95,74 %
08.11.2023 00:44 8,6 C 7,8 C 3,9 C 91 % 1012,2 hPa 0,0 l/m 0 min 2 min 0 W/m 19,3 km/h (3 Bft) 97,87 %
08.11.2023 00:46 8,6 C 7,8 C 3,9 C 91 % 1012,2 hPa 0,0 l/m 0 min 0 min 0 W/m 12,9 km/h (3 Bft) 97,83 %
08.11.2023 00:48 8,6 C 7,8 C 3,9 C 91 % 1012,3 hPa 0,0 l/m 0 min 2 min 0 W/m 16,1 km/h (3 Bft) 97,87 %
08.11.2023 00:50 8,6 C 7,8 C 3,9 C 91 % 1012,3 hPa 0,0 l/m 0 min 0 min 0 W/m 12,9 km/h (3 Bft) 97,87 %
08.11.2023 00:52 8,6 C 7,8 C 3,9 C 91 % 1012,3 hPa 0,0 l/m 0 min 0 min 0 W/m 12,9 km/h (3 Bft) 95,74 %
08.11.2023 00:54 8,5 C 7,8 C 3,9 C 91 % 1012,3 hPa 0,0 l/m 0 min 0 min 0 W/m 19,3 km/h (3 Bft) 97,87 %
08.11.2023 00:56 8,5 C 7,8 C 3,9 C 91 % 1012,3 hPa 0,0 l/m 0 min 0 min 0 W/m 19,3 km/h (3 Bft) 95,74 %
08.11.2023 00:58 8,5 C 7,8 C 3,9 C 91 % 1012,3 hPa 0,0 l/m 0 min 0 min 0 W/m 16,1 km/h (3 Bft) 100,00 %
08.11.2023 01:00 8,5 C 7,8 C 4,4 C 91 % 1012,3 hPa 0,0 l/m 0 min 0 min 0 W/m 22,5 km/h (4 Bft) 100,00 %
08.11.2023 01:02 8,5 C 7,8 C 4,4 C 91 % 1012,3 hPa 0,0 l/m 0 min 0 min 0 W/m 12,9 km/h (3 Bft) 97,87 %
08.11.2023 01:04 8,5 C 7,8 C 4,4 C 91 % 1012,3 hPa 0,0 l/m 0 min 0 min 0 W/m 16,1 km/h (3 Bft) 91,30 %
08.11.2023 01:10 8,5 C 7,8 C 4,4 C 91 % 1012,3 hPa 0,0 l/m 0 min 0 min 0 W/m 19,3 km/h (3 Bft) 97,67 %
08.11.2023 01:12 8,5 C 7,8 C 4,4 C 91 % 1012,3 hPa 0,0 l/m 0 min 0 min 0 W/m 16,1 km/h (3 Bft) 97,87 %
08.11.2023 01:14 8,6 C 7,8 C 4,4 C 91 % 1012,3 hPa 0,0 l/m 0 min 2 min 0 W/m 12,9 km/h (3 Bft) 95,74 %
08.11.2023 01:16 8,6 C 7,8 C 4,4 C 91 % 1012,4 hPa 0,0 l/m 0 min 2 min 0 W/m 12,9 km/h (3 Bft) 97,87 %
08.11.2023 01:18 8,6 C 7,8 C 4,4 C 91 % 1012,4 hPa 0,0 l/m 0 min 2 min 0 W/m 6,4 km/h (2 Bft) 95,74 %
08.11.2023 01:20 8,6 C 7,8 C 4,4 C 91 % 1012,4 hPa 0,0 l/m 0 min 2 min 0 W/m 12,9 km/h (3 Bft) 97,87 %
08.11.2023 01:22 8,6 C 7,8 C 4,4 C 91 % 1012,4 hPa 0,0 l/m 0 min 0 min 0 W/m 12,9 km/h (3 Bft) 95,74 %
08.11.2023 01:24 8,6 C 7,8 C 4,4 C 91 % 1012,4 hPa 0,0 l/m 0 min 0 min 0 W/m 9,7 km/h (2 Bft) 97,83 %
08.11.2023 01:26 8,5 C 7,8 C 4,4 C 91 % 1012,4 hPa 0,0 l/m 0 min 0 min 0 W/m 12,9 km/h (3 Bft) 97,87 %
08.11.2023 01:28 8,5 C 7,8 C 4,4 C 91 % 1012,4 hPa 0,0 l/m 0 min 0 min 0 W/m 19,3 km/h (3 Bft) 97,87 %
08.11.2023 01:30 8,5 C 7,8 C 4,4 C 91 % 1012,4 hPa 0,0 l/m 0 min 0 min 0 W/m 12,9 km/h (3 Bft) 95,74 %
08.11.2023 01:32 8,5 C 7,8 C 4,4 C 91 % 1012,4 hPa 0,0 l/m 0 min 0 min 0 W/m 22,5 km/h (4 Bft) 97,87 %
08.11.2023 01:34 8,5 C 7,8 C 4,4 C 91 % 1012,4 hPa 0,0 l/m 0 min 0 min 0 W/m 16,1 km/h (3 Bft) 97,87 %
08.11.2023 01:36 8,5 C 7,8 C 4,4 C 91 % 1012,4 hPa 0,0 l/m 0 min 0 min 0 W/m 12,9 km/h (3 Bft) 97,87 %
08.11.2023 01:38 8,5 C 7,8 C 4,4 C 91 % 1012,5 hPa 0,0 l/m 0 min 0 min 0 W/m 12,9 km/h (3 Bft) 100,00 %
08.11.2023 01:40 8,5 C 7,8 C 4,4 C 91 % 1012,5 hPa 0,0 l/m 0 min 0 min 0 W/m 12,9 km/h (3 Bft) 97,87 %
08.11.2023 01:42 8,5 C 7,8 C 4,4 C 91 % 1012,5 hPa 0,0 l/m 0 min 0 min 0 W/m 6,4 km/h (2 Bft) 97,83 %
08.11.2023 01:44 8,5 C 7,8 C 4,4 C 91 % 1012,5 hPa 0,0 l/m 0 min 0 min 0 W/m 16,1 km/h (3 Bft) 97,87 %
08.11.2023 01:46 8,5 C 7,8 C 4,4 C 91 % 1012,5 hPa 0,0 l/m 0 min 0 min 0 W/m 6,4 km/h (2 Bft) 97,87 %
08.11.2023 01:48 8,4 C 7,8 C 4,4 C 91 % 1012,5 hPa 0,0 l/m 0 min 0 min 0 W/m 12,9 km/h (3 Bft) 97,87 %
08.11.2023 01:50 8,4 C 7,8 C 4,4 C 91 % 1012,5 hPa 0,0 l/m 0 min 0 min 0 W/m 16,1 km/h (3 Bft) 97,87 %
08.11.2023 01:52 8,4 C 7,8 C 4,4 C 91 % 1012,5 hPa 0,0 l/m 0 min 0 min 0 W/m 12,9 km/h (3 Bft) 93,62 %
08.11.2023 01:54 8,4 C 7,8 C 4,4 C 91 % 1012,5 hPa 0,0 l/m 0 min 0 min 0 W/m 25,7 km/h (4 Bft) 97,87 %
08.11.2023 01:56 8,4 C 7,8 C 4,4 C 91 % 1012,5 hPa 0,0 l/m 0 min 0 min 0 W/m 12,9 km/h (3 Bft) 97,87 %
08.11.2023 01:58 8,5 C 7,8 C 4,4 C 91 % 1012,5 hPa 0,0 l/m 0 min 0 min 0 W/m 12,9 km/h (3 Bft) 96,00 %
08.11.2023 02:00 8,5 C 7,8 C 4,4 C 91 % 1012,5 hPa 0,0 l/m 0 min 0 min 0 W/m 12,9 km/h (3 Bft) 97,92 %
08.11.2023 02:02 8,5 C 7,8 C 4,4 C 91 % 1012,5 hPa 0,0 l/m 0 min 0 min 0 W/m 16,1 km/h (3 Bft) 97,87 %
08.11.2023 02:04 8,5 C 7,8 C 4,4 C 91 % 1012,5 hPa 0,0 l/m 0 min 0 min 0 W/m 19,3 km/h (3 Bft) 95,45 %
08.11.2023 02:06 8,5 C 7,8 C 4,4 C 91 % 1012,5 hPa 0,0 l/m 0 min 0 min 0 W/m 19,3 km/h (3 Bft) 98,31 %
08.11.2023 02:08 8,5 C 7,8 C 4,4 C 91 % 1012,6 hPa 0,0 l/m 0 min 0 min 0 W/m 9,7 km/h (2 Bft) 97,14 %
08.11.2023 02:10 8,5 C 7,8 C 4,4 C 91 % 1012,5 hPa 0,0 l/m 0 min 0 min 0 W/m 32,2 km/h (5 Bft) 97,87 %
08.11.2023 02:12 8,6 C 7,8 C 4,4 C 91 % 1012,6 hPa 0,0 l/m 0 min 0 min 0 W/m 25,7 km/h (4 Bft) 97,87 %
08.11.2023 02:14 8,6 C 7,8 C 5,0 C 91 % 1012,6 hPa 0,0 l/m 0 min 0 min 0 W/m 19,3 km/h (3 Bft) 95,65 %
08.11.2023 02:16 8,6 C 7,8 C 5,0 C 91 % 1012,5 hPa 0,0 l/m 0 min 0 min 0 W/m 22,5 km/h (4 Bft) 97,87 %
08.11.2023 02:18 8,6 C 7,8 C 5,0 C 91 % 1012,6 hPa 0,0 l/m 0 min 0 min 0 W/m 16,1 km/h (3 Bft) 97,87 %
08.11.2023 02:20 8,6 C 7,8 C 5,0 C 91 % 1012,6 hPa 0,0 l/m 0 min 0 min 0 W/m 12,9 km/h (3 Bft) 97,87 %
08.11.2023 02:22 8,6 C 7,8 C 5,0 C 91 % 1012,6 hPa 0,0 l/m 0 min 0 min 0 W/m 19,3 km/h (3 Bft) 100,00 %
08.11.2023 02:24 8,6 C 7,8 C 5,0 C 91 % 1012,6 hPa 0,0 l/m 0 min 0 min 0 W/m 6,4 km/h (2 Bft) 100,00 %
08.11.2023 02:26 8,6 C 7,8 C 5,0 C 91 % 1012,6 hPa 0,0 l/m 0 min 0 min 0 W/m 12,9 km/h (3 Bft) 100,00 %
08.11.2023 02:28 8,6 C 7,8 C 5,0 C 91 % 1012,7 hPa 0,0 l/m 0 min 0 min 0 W/m 22,5 km/h (4 Bft) 97,87 %
08.11.2023 02:30 8,6 C 7,8 C 5,0 C 91 % 1012,6 hPa 0,0 l/m 0 min 0 min 0 W/m 22,5 km/h (4 Bft) 97,87 %
08.11.2023 02:32 8,6 C 7,8 C 5,0 C 91 % 1012,7 hPa 0,0 l/m 0 min 0 min 0 W/m 19,3 km/h (3 Bft) 100,00 %
08.11.2023 02:34 8,6 C 7,8 C 5,0 C 91 % 1012,7 hPa 0,0 l/m 0 min 0 min 0 W/m 19,3 km/h (3 Bft) 100,00 %
08.11.2023 02:36 8,6 C 7,8 C 5,0 C 90 % 1012,6 hPa 0,0 l/m 0 min 0 min 0 W/m 12,9 km/h (3 Bft) 100,00 %
08.11.2023 02:38 8,7 C 7,8 C 5,0 C 90 % 1012,7 hPa 0,0 l/m 0 min 0 min 0 W/m 16,1 km/h (3 Bft) 100,00 %
08.11.2023 02:40 8,7 C 7,8 C 5,0 C 90 % 1012,7 hPa 0,0 l/m 0 min 0 min 0 W/m 12,9 km/h (3 Bft) 100,00 %
08.11.2023 02:42 8,7 C 7,8 C 5,0 C 90 % 1012,7 hPa 0,0 l/m 0 min 0 min 0 W/m 12,9 km/h (3 Bft) 100,00 %
08.11.2023 02:44 8,7 C 7,8 C 5,0 C 90 % 1012,8 hPa 0,0 l/m 0 min 0 min 0 W/m 19,3 km/h (3 Bft) 100,00 %
08.11.2023 02:46 8,7 C 7,8 C 5,0 C 90 % 1012,7 hPa 0,0 l/m 0 min 0 min 0 W/m 12,9 km/h (3 Bft) 95,74 %
08.11.2023 02:48 8,7 C 7,8 C 5,0 C 90 % 1012,8 hPa 0,0 l/m 0 min 0 min 0 W/m 6,4 km/h (2 Bft) 100,00 %
08.11.2023 02:50 8,7 C 7,8 C 4,4 C 90 % 1012,8 hPa 0,0 l/m 0 min 0 min 0 W/m 16,1 km/h (3 Bft) 100,00 %
08.11.2023 02:52 8,6 C 7,8 C 4,4 C 90 % 1012,8 hPa 0,0 l/m 0 min 0 min 0 W/m 12,9 km/h (3 Bft) 97,87 %
08.11.2023 02:54 8,6 C 7,8 C 4,4 C 90 % 1012,8 hPa 0,0 l/m 0 min 0 min 0 W/m 9,7 km/h (2 Bft) 97,87 %
08.11.2023 02:56 8,6 C 7,8 C 4,4 C 90 % 1012,8 hPa 0,0 l/m 0 min 0 min 0 W/m 12,9 km/h (3 Bft) 95,74 %
08.11.2023 02:58 8,6 C 7,8 C 4,4 C 90 % 1012,8 hPa 0,0 l/m 0 min 0 min 0 W/m 12,9 km/h (3 Bft) 97,87 %
08.11.2023 03:00 8,6 C 7,8 C 4,4 C 90 % 1012,8 hPa 0,0 l/m 0 min 0 min 0 W/m 12,9 km/h (3 Bft) 97,83 %
08.11.2023 03:02 8,6 C 7,8 C 4,4 C 90 % 1012,8 hPa 0,0 l/m 0 min 0 min 0 W/m 16,1 km/h (3 Bft) 97,87 %
08.11.2023 03:12 8,6 C 7,8 C 4,4 C 90 % 1012,9 hPa 0,0 l/m 0 min 0 min 0 W/m 9,7 km/h (2 Bft) 100,00 %
08.11.2023 03:13 8,6 C 7,8 C 4,4 C 90 % 1012,9 hPa 0,0 l/m 0 min 0 min 0 W/m 6,4 km/h (2 Bft) 100,00 %
08.11.2023 03:15 8,6 C 7,8 C 4,4 C 90 % 1012,9 hPa 0,0 l/m 0 min 0 min 0 W/m 9,7 km/h (2 Bft) 76,32 %
08.11.2023 03:18 8,6 C 7,8 C 4,4 C 90 % 1012,8 hPa 0,0 l/m 0 min 0 min 0 W/m 9,7 km/h (2 Bft) 97,14 %
08.11.2023 03:20 8,6 C 7,8 C 4,4 C 90 % 1012,8 hPa 0,0 l/m 0 min 0 min 0 W/m 12,9 km/h (3 Bft) 93,75 %
08.11.2023 03:22 8,6 C 7,8 C 4,4 C 90 % 1012,9 hPa 0,0 l/m 0 min 0 min 0 W/m 9,7 km/h (2 Bft) 95,24 %
08.11.2023 03:24 8,6 C 7,8 C 4,4 C 90 % 1012,9 hPa 0,0 l/m 0 min 0 min 0 W/m 16,1 km/h (3 Bft) 97,83 %
08.11.2023 03:26 8,6 C 7,8 C 5,0 C 90 % 1012,9 hPa 0,0 l/m 0 min 0 min 0 W/m 9,7 km/h (2 Bft) 97,87 %
08.11.2023 03:28 8,6 C 7,8 C 5,0 C 90 % 1012,9 hPa 0,0 l/m 0 min 0 min 0 W/m 16,1 km/h (3 Bft) 97,87 %
08.11.2023 03:30 8,6 C 7,8 C 5,0 C 90 % 1012,9 hPa 0,0 l/m 0 min 0 min 0 W/m 12,9 km/h (3 Bft) 97,87 %
08.11.2023 03:32 8,6 C 7,8 C 5,0 C 90 % 1013,0 hPa 0,0 l/m 0 min 0 min 0 W/m 9,7 km/h (2 Bft) 97,87 %
08.11.2023 03:34 8,6 C 7,8 C 5,0 C 90 % 1012,9 hPa 0,0 l/m 0 min 0 min 0 W/m 9,7 km/h (2 Bft) 97,87 %
08.11.2023 03:36 8,6 C 7,8 C 5,0 C 90 % 1012,9 hPa 0,0 l/m 0 min 0 min 0 W/m 6,4 km/h (2 Bft) 95,74 %
08.11.2023 03:38 8,6 C 7,8 C 4,4 C 90 % 1012,9 hPa 0,0 l/m 0 min 0 min 0 W/m 6,4 km/h (2 Bft) 95,65 %
08.11.2023 03:40 8,6 C 7,8 C 5,0 C 90 % 1012,9 hPa 0,0 l/m 0 min 0 min 0 W/m 16,1 km/h (3 Bft) 97,87 %
08.11.2023 03:42 8,6 C 7,8 C 5,0 C 90 % 1012,9 hPa 0,0 l/m 0 min 0 min 0 W/m 9,7 km/h (2 Bft) 97,87 %
08.11.2023 03:44 8,6 C 7,8 C 5,0 C 90 % 1013,0 hPa 0,0 l/m 0 min 0 min 0 W/m 12,9 km/h (3 Bft) 97,87 %
08.11.2023 03:46 8,6 C 7,8 C 5,0 C 90 % 1012,9 hPa 0,0 l/m 0 min 0 min 0 W/m 16,1 km/h (3 Bft) 97,87 %
08.11.2023 03:48 8,6 C 7,8 C 5,0 C 90 % 1012,9 hPa 0,0 l/m 0 min 0 min 0 W/m 9,7 km/h (2 Bft) 97,87 %
08.11.2023 03:50 8,6 C 7,8 C 5,0 C 90 % 1013,0 hPa 0,0 l/m 0 min 0 min 0 W/m 12,9 km/h (3 Bft) 95,74 %
08.11.2023 03:52 8,6 C 7,8 C 5,0 C 90 % 1012,9 hPa 0,0 l/m 0 min 0 min 0 W/m 16,1 km/h (3 Bft) 97,83 %
08.11.2023 03:54 8,6 C 7,8 C 5,0 C 90 % 1012,9 hPa 0,0 l/m 0 min 0 min 0 W/m 12,9 km/h (3 Bft) 97,87 %
08.11.2023 03:56 8,6 C 7,8 C 5,0 C 90 % 1012,9 hPa 0,0 l/m 0 min 0 min 0 W/m 12,9 km/h (3 Bft) 97,87 %
08.11.2023 03:58 8,6 C 7,8 C 5,0 C 90 % 1012,9 hPa 0,0 l/m 0 min 0 min 0 W/m 6,4 km/h (2 Bft) 97,87 %
08.11.2023 04:00 8,6 C 7,8 C 5,0 C 90 % 1013,0 hPa 0,0 l/m 0 min 0 min 0 W/m 6,4 km/h (2 Bft) 100,00 %
08.11.2023 04:02 8,6 C 7,8 C 5,0 C 90 % 1012,9 hPa 0,0 l/m 0 min 0 min 0 W/m 6,4 km/h (2 Bft) 97,87 %
08.11.2023 04:04 8,6 C 7,8 C 5,0 C 90 % 1012,9 hPa 0,0 l/m 0 min 0 min 0 W/m 16,1 km/h (3 Bft) 87,23 %
08.11.2023 04:08 8,6 C 7,8 C 5,0 C 90 % 1012,9 hPa 0,0 l/m 0 min 0 min 0 W/m 19,3 km/h (3 Bft) 82,29 %
08.11.2023 04:09 8,6 C 7,8 C 5,0 C 90 % 1013,0 hPa 0,0 l/m 0 min 0 min 0 W/m 12,9 km/h (3 Bft) 95,65 %
08.11.2023 04:12 8,6 C 7,8 C 5,0 C 90 % 1013,0 hPa 0,0 l/m 0 min 0 min 0 W/m 16,1 km/h (3 Bft) 94,29 %
08.11.2023 04:14 8,6 C 7,8 C 5,0 C 89 % 1013,0 hPa 0,0 l/m 0 min 0 min 0 W/m 6,4 km/h (2 Bft) 97,87 %
08.11.2023 04:16 8,6 C 7,8 C 5,0 C 89 % 1013,0 hPa 0,0 l/m 0 min 0 min 0 W/m 6,4 km/h (2 Bft) 97,87 %
08.11.2023 04:18 8,6 C 7,8 C 5,0 C 89 % 1013,0 hPa 0,0 l/m 0 min 0 min 0 W/m 12,9 km/h (3 Bft) 93,62 %
08.11.2023 04:20 8,6 C 7,8 C 5,0 C 89 % 1013,0 hPa 0,0 l/m 0 min 0 min 0 W/m 16,1 km/h (3 Bft) 97,87 %
08.11.2023 04:22 8,6 C 7,8 C 5,0 C 89 % 1013,1 hPa 0,0 l/m 0 min 0 min 0 W/m 6,4 km/h (2 Bft) 97,87 %
08.11.2023 04:24 8,6 C 7,8 C 5,0 C 90 % 1013,1 hPa 0,0 l/m 0 min 0 min 0 W/m 9,7 km/h (2 Bft) 97,87 %
08.11.2023 04:26 8,6 C 7,8 C 5,0 C 89 % 1013,1 hPa 0,0 l/m 0 min 0 min 0 W/m 16,1 km/h (3 Bft) 97,83 %
08.11.2023 04:28 8,7 C 7,8 C 5,0 C 89 % 1013,1 hPa 0,0 l/m 0 min 0 min 0 W/m 6,4 km/h (2 Bft) 97,87 %
08.11.2023 04:30 8,7 C 7,8 C 5,0 C 89 % 1013,1 hPa 0,0 l/m 0 min 0 min 0 W/m 6,4 km/h (2 Bft) 97,87 %
08.11.2023 04:32 8,7 C 7,8 C 5,0 C 89 % 1013,1 hPa 0,0 l/m 0 min 0 min 0 W/m 12,9 km/h (3 Bft) 95,74 %
08.11.2023 04:34 8,7 C 7,8 C 5,0 C 89 % 1013,1 hPa 0,0 l/m 0 min 0 min 0 W/m 22,5 km/h (4 Bft) 97,87 %
08.11.2023 04:36 8,7 C 7,8 C 5,0 C 89 % 1013,2 hPa 0,0 l/m 0 min 0 min 0 W/m 16,1 km/h (3 Bft) 97,87 %
08.11.2023 04:38 8,6 C 7,8 C 5,0 C 89 % 1013,2 hPa 0,0 l/m 0 min 0 min 0 W/m 12,9 km/h (3 Bft) 97,87 %
08.11.2023 04:40 8,6 C 7,8 C 5,0 C 89 % 1013,2 hPa 0,0 l/m 0 min 0 min 0 W/m 6,4 km/h (2 Bft) 97,83 %
08.11.2023 04:42 8,6 C 7,8 C 5,0 C 89 % 1013,2 hPa 0,0 l/m 0 min 0 min 0 W/m 19,3 km/h (3 Bft) 97,87 %
08.11.2023 04:44 8,6 C 7,8 C 4,4 C 89 % 1013,3 hPa 0,0 l/m 0 min 0 min 0 W/m 12,9 km/h (3 Bft) 95,74 %
08.11.2023 04:46 8,6 C 7,8 C 4,4 C 89 % 1013,2 hPa 0,0 l/m 0 min 0 min 0 W/m 16,1 km/h (3 Bft) 95,74 %
08.11.2023 04:48 8,6 C 7,8 C 4,4 C 89 % 1013,3 hPa 0,0 l/m 0 min 0 min 0 W/m 12,9 km/h (3 Bft) 91,49 %
08.11.2023 04:50 8,6 C 7,8 C 4,4 C 89 % 1013,4 hPa 0,0 l/m 0 min 0 min 0 W/m 16,1 km/h (3 Bft) 95,74 %
08.11.2023 04:52 8,6 C 7,8 C 4,4 C 89 % 1013,3 hPa 0,0 l/m 0 min 0 min 0 W/m 16,1 km/h (3 Bft) 97,87 %
08.11.2023 04:54 8,5 C 7,8 C 4,4 C 89 % 1013,3 hPa 0,0 l/m 0 min 0 min 0 W/m 16,1 km/h (3 Bft) 97,83 %
08.11.2023 04:56 8,5 C 7,8 C 4,4 C 89 % 1013,2 hPa 0,0 l/m 0 min 0 min 0 W/m 22,5 km/h (4 Bft) 98,08 %
08.11.2023 04:58 8,4 C 7,8 C 4,4 C 89 % 1013,3 hPa 0,0 l/m 0 min 0 min 0 W/m 19,3 km/h (3 Bft) 97,56 %
08.11.2023 05:00 8,4 C 7,8 C 4,4 C 89 % 1013,2 hPa 0,0 l/m 0 min 0 min 0 W/m 6,4 km/h (2 Bft) 95,74 %
08.11.2023 05:02 8,4 C 7,2 C 4,4 C 89 % 1013,3 hPa 0,0 l/m 0 min 0 min 0 W/m 19,3 km/h (3 Bft) 97,87 %
08.11.2023 05:04 8,3 C 7,2 C 4,4 C 89 % 1013,2 hPa 0,0 l/m 0 min 0 min 0 W/m 12,9 km/h (3 Bft) 98,11 %
08.11.2023 05:10 8,3 C 7,2 C 4,4 C 89 % 1013,2 hPa 0,0 l/m 0 min 0 min 0 W/m 12,9 km/h (3 Bft) 97,71 %
08.11.2023 05:12 8,2 C 7,2 C 4,4 C 89 % 1013,4 hPa 0,0 l/m 0 min 0 min 0 W/m 19,3 km/h (3 Bft) 97,87 %
08.11.2023 05:14 8,2 C 7,2 C 4,4 C 89 % 1013,3 hPa 0,0 l/m 0 min 0 min 0 W/m 12,9 km/h (3 Bft) 100,00 %
08.11.2023 05:16 8,2 C 7,2 C 4,4 C 89 % 1013,4 hPa 0,0 l/m 0 min 0 min 0 W/m 16,1 km/h (3 Bft) 97,92 %
08.11.2023 05:18 8,2 C 7,2 C 4,4 C 89 % 1013,4 hPa 0,0 l/m 0 min 0 min 0 W/m 16,1 km/h (3 Bft) 100,00 %
08.11.2023 05:20 8,2 C 7,2 C 4,4 C 90 % 1013,4 hPa 0,0 l/m 0 min 0 min 0 W/m 12,9 km/h (3 Bft) 100,00 %
08.11.2023 05:22 8,1 C 7,2 C 4,4 C 90 % 1013,4 hPa 0,0 l/m 0 min 0 min 0 W/m 12,9 km/h (3 Bft) 100,00 %
08.11.2023 05:24 8,1 C 7,2 C 4,4 C 90 % 1013,4 hPa 0,0 l/m 0 min 0 min 0 W/m 12,9 km/h (3 Bft) 93,62 %
08.11.2023 05:26 8,1 C 7,2 C 3,9 C 90 % 1013,4 hPa 0,0 l/m 0 min 0 min 0 W/m 16,1 km/h (3 Bft) 100,00 %
08.11.2023 05:28 8,1 C 7,2 C 4,4 C 90 % 1013,4 hPa 0,0 l/m 0 min 0 min 0 W/m 16,1 km/h (3 Bft) 97,87 %
08.11.2023 05:30 8,1 C 7,2 C 3,9 C 90 % 1013,4 hPa 0,0 l/m 0 min 0 min 0 W/m 12,9 km/h (3 Bft) 100,00 %
08.11.2023 05:32 8,0 C 7,2 C 3,9 C 90 % 1013,4 hPa 0,0 l/m 0 min 0 min 0 W/m 12,9 km/h (3 Bft) 97,87 %
08.11.2023 05:34 8,0 C 7,2 C 3,9 C 90 % 1013,4 hPa 0,0 l/m 0 min 0 min 0 W/m 19,3 km/h (3 Bft) 100,00 %
08.11.2023 05:36 8,0 C 7,2 C 3,9 C 90 % 1013,3 hPa 0,0 l/m 0 min 0 min 0 W/m 9,7 km/h (2 Bft) 100,00 %
08.11.2023 05:38 7,9 C 7,2 C 3,9 C 90 % 1013,3 hPa 0,0 l/m 0 min 0 min 0 W/m 12,9 km/h (3 Bft) 100,00 %
08.11.2023 05:40 7,9 C 7,2 C 3,9 C 90 % 1013,3 hPa 0,0 l/m 0 min 0 min 0 W/m 22,5 km/h (4 Bft) 100,00 %
08.11.2023 05:42 7,9 C 7,2 C 3,9 C 90 % 1013,3 hPa 0,0 l/m 0 min 0 min 0 W/m 9,7 km/h (2 Bft) 100,00 %
08.11.2023 05:44 7,9 C 7,2 C 3,9 C 90 % 1013,3 hPa 0,0 l/m 0 min 0 min 0 W/m 16,1 km/h (3 Bft) 100,00 %
08.11.2023 05:46 7,9 C 7,2 C 3,9 C 90 % 1013,3 hPa 0,0 l/m 0 min 0 min 0 W/m 12,9 km/h (3 Bft) 97,87 %
08.11.2023 05:48 7,9 C 7,2 C 3,9 C 90 % 1013,4 hPa 0,0 l/m 0 min 0 min 0 W/m 12,9 km/h (3 Bft) 100,00 %
08.11.2023 05:50 7,9 C 7,2 C 3,9 C 90 % 1013,3 hPa 0,0 l/m 0 min 0 min 0 W/m 12,9 km/h (3 Bft) 100,00 %
08.11.2023 05:52 7,9 C 7,2 C 3,9 C 90 % 1013,3 hPa 0,0 l/m 0 min 0 min 0 W/m 16,1 km/h (3 Bft) 100,00 %
08.11.2023 05:54 7,8 C 7,2 C 3,9 C 90 % 1013,2 hPa 0,0 l/m 0 min 0 min 0 W/m 19,3 km/h (3 Bft) 100,00 %
08.11.2023 05:56 7,8 C 7,2 C 3,9 C 91 % 1013,2 hPa 0,0 l/m 0 min 0 min 0 W/m 12,9 km/h (3 Bft) 100,00 %
08.11.2023 05:58 7,8 C 7,2 C 3,9 C 91 % 1013,3 hPa 0,0 l/m 0 min 0 min 0 W/m 16,1 km/h (3 Bft) 100,00 %
08.11.2023 06:00 7,8 C 7,2 C 3,9 C 91 % 1013,3 hPa 0,0 l/m 0 min 0 min 0 W/m 12,9 km/h (3 Bft) 100,00 %
08.11.2023 06:02 7,8 C 6,7 C 3,9 C 91 % 1013,3 hPa 0,0 l/m 0 min 0 min 0 W/m 9,7 km/h (2 Bft) 100,00 %
08.11.2023 06:04 7,8 C 6,7 C 3,9 C 91 % 1013,3 hPa 0,0 l/m 0 min 0 min 0 W/m 12,9 km/h (3 Bft) 100,00 %
08.11.2023 06:08 7,7 C 6,7 C 3,9 C 91 % 1013,3 hPa 0,0 l/m 0 min 0 min 0 W/m 6,4 km/h (2 Bft) 100,00 %
08.11.2023 06:10 7,7 C 6,7 C 3,9 C 91 % 1013,4 hPa 0,0 l/m 0 min 0 min 0 W/m 16,1 km/h (3 Bft) 97,87 %
08.11.2023 06:12 7,7 C 6,7 C 3,9 C 91 % 1013,3 hPa 0,0 l/m 0 min 0 min 0 W/m 12,9 km/h (3 Bft) 97,83 %
08.11.2023 06:16 7,7 C 6,7 C 3,9 C 91 % 1013,3 hPa 0,0 l/m 0 min 0 min 0 W/m 22,5 km/h (4 Bft) 96,81 %
08.11.2023 06:18 7,7 C 6,7 C 3,9 C 91 % 1013,3 hPa 0,0 l/m 0 min 0 min 0 W/m 16,1 km/h (3 Bft) 97,87 %
08.11.2023 06:20 7,7 C 6,7 C 3,9 C 91 % 1013,4 hPa 0,0 l/m 0 min 0 min 0 W/m 16,1 km/h (3 Bft) 97,87 %
08.11.2023 06:22 7,7 C 6,7 C 3,9 C 91 % 1013,3 hPa 0,0 l/m 0 min 0 min 0 W/m 16,1 km/h (3 Bft) 95,74 %
08.11.2023 06:24 7,7 C 6,7 C 3,9 C 91 % 1013,4 hPa 0,0 l/m 0 min 0 min 0 W/m 19,3 km/h (3 Bft) 97,83 %
08.11.2023 06:26 7,7 C 7,2 C 3,9 C 91 % 1013,3 hPa 0,0 l/m 0 min 0 min 0 W/m 22,5 km/h (4 Bft) 93,62 %
08.11.2023 06:28 7,7 C 7,2 C 3,9 C 91 % 1013,4 hPa 0,0 l/m 0 min 0 min 0 W/m 12,9 km/h (3 Bft) 97,87 %
08.11.2023 06:30 7,7 C 6,7 C 3,9 C 91 % 1013,3 hPa 0,0 l/m 0 min 0 min 0 W/m 12,9 km/h (3 Bft) 93,62 %
08.11.2023 06:32 7,7 C 6,7 C 3,9 C 91 % 1013,3 hPa 0,0 l/m 0 min 0 min 0 W/m 12,9 km/h (3 Bft) 95,74 %
08.11.2023 06:34 7,7 C 6,7 C 3,9 C 91 % 1013,3 hPa 0,0 l/m 0 min 0 min 0 W/m 16,1 km/h (3 Bft) 95,74 %
08.11.2023 06:36 7,7 C 6,7 C 3,9 C 91 % 1013,3 hPa 0,0 l/m 0 min 0 min 0 W/m 16,1 km/h (3 Bft) 95,74 %
08.11.2023 06:38 7,7 C 6,7 C 3,9 C 91 % 1013,3 hPa 0,0 l/m 0 min 0 min 0 W/m 19,3 km/h (3 Bft) 93,48 %
08.11.2023 06:40 7,7 C 7,2 C 3,9 C 91 % 1013,3 hPa 0,0 l/m 0 min 0 min 0 W/m 16,1 km/h (3 Bft) 93,62 %
08.11.2023 06:42 7,7 C 6,7 C 3,9 C 91 % 1013,3 hPa 0,0 l/m 0 min 0 min 0 W/m 12,9 km/h (3 Bft) 89,36 %
08.11.2023 06:44 7,7 C 7,2 C 3,9 C 91 % 1013,3 hPa 0,0 l/m 0 min 0 min 0 W/m 19,3 km/h (3 Bft) 93,62 %
08.11.2023 06:46 7,7 C 7,2 C 3,9 C 91 % 1013,3 hPa 0,0 l/m 0 min 0 min 0 W/m 9,7 km/h (2 Bft) 92,86 %
08.11.2023 06:48 7,7 C 7,2 C 3,9 C 91 % 1013,4 hPa 0,0 l/m 0 min 0 min 0 W/m 12,9 km/h (3 Bft) 92,00 %
08.11.2023 06:50 7,7 C 7,2 C 3,9 C 91 % 1013,3 hPa 0,0 l/m 0 min 0 min 0 W/m 19,3 km/h (3 Bft) 93,62 %
08.11.2023 06:52 7,7 C 7,2 C 3,9 C 91 % 1013,3 hPa 0,0 l/m 0 min 0 min 0 W/m 16,1 km/h (3 Bft) 91,49 %
08.11.2023 06:54 7,7 C 7,2 C 3,9 C 91 % 1013,3 hPa 0,0 l/m 0 min 0 min 0 W/m 12,9 km/h (3 Bft) 93,62 %
08.11.2023 06:56 7,8 C 7,2 C 3,9 C 91 % 1013,3 hPa 0,0 l/m 0 min 0 min 0 W/m 12,9 km/h (3 Bft) 91,49 %
08.11.2023 06:58 7,7 C 7,2 C 3,9 C 91 % 1013,3 hPa 0,0 l/m 0 min 0 min 0 W/m 16,1 km/h (3 Bft) 91,30 %
08.11.2023 07:00 7,8 C 7,2 C 3,9 C 91 % 1013,3 hPa 0,0 l/m 0 min 0 min 0 W/m 22,5 km/h (4 Bft) 89,36 %
08.11.2023 07:02 7,8 C 7,2 C 3,9 C 91 % 1013,4 hPa 0,0 l/m 0 min 0 min 0 W/m 16,1 km/h (3 Bft) 95,74 %
08.11.2023 07:04 7,8 C 7,2 C 3,9 C 91 % 1013,4 hPa 0,0 l/m 0 min 0 min 0 W/m 12,9 km/h (3 Bft) 93,33 %
08.11.2023 07:06 7,8 C 7,2 C 3,9 C 91 % 1013,4 hPa 0,0 l/m 0 min 0 min 0 W/m 12,9 km/h (3 Bft) 97,87 %
08.11.2023 07:08 7,8 C 7,2 C 3,9 C 91 % 1013,3 hPa 0,0 l/m 0 min 0 min 0 W/m 12,9 km/h (3 Bft) 97,87 %
08.11.2023 07:10 7,8 C 7,2 C 3,9 C 91 % 1013,3 hPa 0,0 l/m 0 min 0 min 0 W/m 16,1 km/h (3 Bft) 95,65 %
08.11.2023 07:12 7,8 C 7,2 C 3,9 C 91 % 1013,4 hPa 0,0 l/m 0 min 0 min 0 W/m 16,1 km/h (3 Bft) 95,74 %
08.11.2023 07:14 7,8 C 7,2 C 3,9 C 91 % 1013,3 hPa 0,0 l/m 0 min 0 min 0 W/m 29,0 km/h (5 Bft) 97,87 %
08.11.2023 07:16 7,8 C 7,2 C 3,9 C 91 % 1013,4 hPa 0,0 l/m 0 min 0 min 0 W/m 19,3 km/h (3 Bft) 97,87 %
08.11.2023 07:18 7,8 C 7,2 C 3,9 C 91 % 1013,4 hPa 0,0 l/m 0 min 0 min 0 W/m 9,7 km/h (2 Bft) 100,00 %
08.11.2023 07:20 7,9 C 7,2 C 3,9 C 91 % 1013,5 hPa 0,0 l/m 0 min 0 min 0 W/m 16,1 km/h (3 Bft) 100,00 %
08.11.2023 07:22 7,9 C 7,2 C 3,9 C 91 % 1013,5 hPa 0,0 l/m 0 min 0 min 0 W/m 19,3 km/h (3 Bft) 95,74 %
08.11.2023 07:24 7,9 C 7,2 C 3,9 C 91 % 1013,5 hPa 0,0 l/m 0 min 0 min 0 W/m 16,1 km/h (3 Bft) 100,00 %
08.11.2023 07:26 7,9 C 7,2 C 3,9 C 91 % 1013,5 hPa 0,0 l/m 0 min 0 min 0 W/m 16,1 km/h (3 Bft) 97,87 %
08.11.2023 07:28 7,9 C 7,2 C 3,9 C 91 % 1013,7 hPa 0,0 l/m 0 min 0 min 0 W/m 16,1 km/h (3 Bft) 100,00 %
08.11.2023 07:30 7,9 C 7,2 C 3,9 C 91 % 1013,7 hPa 0,0 l/m 0 min 0 min 0 W/m 9,7 km/h (2 Bft) 100,00 %
08.11.2023 07:32 7,9 C 7,2 C 3,9 C 91 % 1013,8 hPa 0,0 l/m 0 min 0 min 0 W/m 16,1 km/h (3 Bft) 100,00 %
08.11.2023 07:34 7,9 C 7,2 C 3,9 C 91 % 1013,8 hPa 0,0 l/m 0 min 0 min 0 W/m 16,1 km/h (3 Bft) 100,00 %
08.11.2023 07:36 7,9 C 7,2 C 3,9 C 91 % 1013,8 hPa 0,0 l/m 0 min 0 min 0 W/m 12,9 km/h (3 Bft) 100,00 %
08.11.2023 07:38 7,9 C 7,2 C 3,9 C 91 % 1013,8 hPa 0,0 l/m 0 min 0 min 0 W/m 12,9 km/h (3 Bft) 97,83 %
08.11.2023 07:40 7,9 C 7,2 C 3,9 C 91 % 1013,8 hPa 0,0 l/m 0 min 0 min 0 W/m 12,9 km/h (3 Bft) 97,87 %
08.11.2023 07:42 7,9 C 7,2 C 3,9 C 91 % 1013,8 hPa 0,0 l/m 0 min 0 min 1 W/m 16,1 km/h (3 Bft) 100,00 %
08.11.2023 07:44 7,9 C 7,2 C 3,9 C 91 % 1013,9 hPa 0,0 l/m 0 min 0 min 5 W/m 16,1 km/h (3 Bft) 100,00 %
08.11.2023 07:46 7,9 C 7,2 C 3,9 C 91 % 1013,8 hPa 0,0 l/m 0 min 0 min 5 W/m 12,9 km/h (3 Bft) 100,00 %
08.11.2023 07:48 7,9 C 7,2 C 4,4 C 91 % 1013,9 hPa 0,0 l/m 0 min 0 min 6 W/m 12,9 km/h (3 Bft) 100,00 %
08.11.2023 07:50 7,9 C 7,2 C 4,4 C 92 % 1013,9 hPa 0,0 l/m 0 min 0 min 8 W/m 19,3 km/h (3 Bft) 100,00 %
08.11.2023 07:52 7,9 C 7,2 C 4,4 C 92 % 1014,0 hPa 0,0 l/m 0 min 0 min 10 W/m 16,1 km/h (3 Bft) 100,00 %
08.11.2023 07:54 7,9 C 7,2 C 4,4 C 92 % 1013,9 hPa 0,0 l/m 0 min 0 min 12 W/m 16,1 km/h (3 Bft) 100,00 %
08.11.2023 07:56 8,0 C 7,2 C 4,4 C 92 % 1013,9 hPa 0,0 l/m 0 min 0 min 12 W/m 16,1 km/h (3 Bft) 100,00 %
08.11.2023 07:58 8,0 C 7,2 C 4,4 C 92 % 1013,9 hPa 0,0 l/m 0 min 0 min 12 W/m 16,1 km/h (3 Bft) 100,00 %
08.11.2023 08:00 8,0 C 7,2 C 4,4 C 92 % 1013,9 hPa 0,0 l/m 0 min 0 min 15 W/m 12,9 km/h (3 Bft) 97,87 %
08.11.2023 08:02 8,1 C 7,2 C 4,4 C 92 % 1013,9 hPa 0,0 l/m 0 min 0 min 17 W/m 9,7 km/h (2 Bft) 97,87 %
08.11.2023 08:04 8,1 C 7,2 C 4,4 C 92 % 1013,9 hPa 0,0 l/m 0 min 0 min 18 W/m 6,4 km/h (2 Bft) 100,00 %
08.11.2023 08:08 8,1 C 7,8 C 4,4 C 92 % 1013,9 hPa 0,0 l/m 0 min 0 min 20 W/m 16,1 km/h (3 Bft) 98,90 %
08.11.2023 08:10 8,1 C 7,8 C 4,4 C 92 % 1013,9 hPa 0,0 l/m 0 min 0 min 21 W/m 16,1 km/h (3 Bft) 100,00 %
08.11.2023 08:12 8,1 C 7,8 C 4,4 C 92 % 1013,9 hPa 0,0 l/m 0 min 0 min 24 W/m 12,9 km/h (3 Bft) 97,87 %
08.11.2023 08:14 8,1 C 7,8 C 4,4 C 92 % 1013,8 hPa 0,0 l/m 0 min 0 min 25 W/m 22,5 km/h (4 Bft) 100,00 %
08.11.2023 08:16 8,1 C 7,8 C 4,4 C 92 % 1013,8 hPa 0,0 l/m 0 min 0 min 27 W/m 16,1 km/h (3 Bft) 100,00 %
08.11.2023 08:18 8,2 C 7,8 C 4,4 C 92 % 1013,7 hPa 0,0 l/m 0 min 0 min 27 W/m 6,4 km/h (2 Bft) 100,00 %
08.11.2023 08:20 8,2 C 7,8 C 4,4 C 92 % 1013,7 hPa 0,0 l/m 0 min 0 min 26 W/m 19,3 km/h (3 Bft) 97,87 %
08.11.2023 08:22 8,2 C 7,8 C 4,4 C 92 % 1013,7 hPa 0,0 l/m 0 min 0 min 26 W/m 9,7 km/h (2 Bft) 100,00 %
08.11.2023 08:24 8,2 C 7,8 C 4,4 C 92 % 1013,8 hPa 0,0 l/m 0 min 0 min 25 W/m 12,9 km/h (3 Bft) 97,87 %
08.11.2023 08:26 8,2 C 7,8 C 4,4 C 92 % 1013,8 hPa 0,0 l/m 0 min 0 min 25 W/m 6,4 km/h (2 Bft) 97,87 %
08.11.2023 08:28 8,2 C 7,8 C 4,4 C 91 % 1013,8 hPa 0,0 l/m 0 min 0 min 25 W/m 16,1 km/h (3 Bft) 97,87 %
08.11.2023 08:30 8,2 C 7,8 C 4,4 C 91 % 1013,8 hPa 0,0 l/m 0 min 0 min 27 W/m 25,7 km/h (4 Bft) 97,87 %
08.11.2023 08:32 8,3 C 7,8 C 4,4 C 91 % 1013,8 hPa 0,0 l/m 0 min 0 min 30 W/m 12,9 km/h (3 Bft) 97,87 %
08.11.2023 08:34 8,3 C 7,8 C 4,4 C 91 % 1013,8 hPa 0,0 l/m 0 min 0 min 32 W/m 12,9 km/h (3 Bft) 97,87 %
08.11.2023 08:36 8,3 C 7,8 C 4,4 C 91 % 1013,8 hPa 0,0 l/m 0 min 0 min 33 W/m 19,3 km/h (3 Bft) 97,83 %
08.11.2023 08:38 8,3 C 7,8 C 4,4 C 92 % 1013,8 hPa 0,0 l/m 0 min 0 min 33 W/m 19,3 km/h (3 Bft) 97,87 %
08.11.2023 08:40 8,3 C 7,8 C 4,4 C 92 % 1013,9 hPa 0,0 l/m 0 min 0 min 32 W/m 9,7 km/h (2 Bft) 96,00 %
08.11.2023 08:42 8,3 C 7,8 C 4,4 C 92 % 1013,9 hPa 0,0 l/m 0 min 0 min 30 W/m 12,9 km/h (3 Bft) 97,30 %
08.11.2023 08:44 8,4 C 7,8 C 4,4 C 92 % 1013,9 hPa 0,0 l/m 0 min 0 min 27 W/m 19,3 km/h (3 Bft) 97,87 %
08.11.2023 08:46 8,4 C 7,8 C 4,4 C 92 % 1013,9 hPa 0,0 l/m 0 min 0 min 26 W/m 19,3 km/h (3 Bft) 95,74 %
08.11.2023 08:48 8,4 C 7,8 C 4,4 C 91 % 1014,0 hPa 0,0 l/m 0 min 0 min 25 W/m 12,9 km/h (3 Bft) 95,74 %
08.11.2023 08:50 8,4 C 7,8 C 4,4 C 91 % 1014,0 hPa 0,0 l/m 0 min 0 min 24 W/m 12,9 km/h (3 Bft) 95,74 %
08.11.2023 08:52 8,4 C 7,8 C 4,4 C 91 % 1014,0 hPa 0,0 l/m 0 min 0 min 23 W/m 6,4 km/h (2 Bft) 95,74 %
08.11.2023 08:54 8,4 C 7,8 C 4,4 C 91 % 1013,9 hPa 0,0 l/m 0 min 0 min 25 W/m 12,9 km/h (3 Bft) 97,87 %
08.11.2023 08:56 8,4 C 7,8 C 4,4 C 91 % 1014,0 hPa 0,0 l/m 0 min 0 min 27 W/m 19,3 km/h (3 Bft) 97,83 %
08.11.2023 08:58 8,4 C 7,8 C 4,4 C 91 % 1014,0 hPa 0,0 l/m 0 min 0 min 28 W/m 9,7 km/h (2 Bft) 100,00 %
08.11.2023 09:00 8,5 C 7,8 C 4,4 C 91 % 1014,0 hPa 0,0 l/m 0 min 0 min 30 W/m 12,9 km/h (3 Bft) 100,00 %
08.11.2023 09:02 8,5 C 7,8 C 4,4 C 91 % 1013,9 hPa 0,0 l/m 0 min 0 min 29 W/m 6,4 km/h (2 Bft) 95,74 %
08.11.2023 09:04 8,5 C 7,8 C 4,4 C 91 % 1013,9 hPa 0,0 l/m 0 min 0 min 25 W/m 16,1 km/h (3 Bft) 100,00 %
08.11.2023 09:08 8,5 C 7,8 C 4,4 C 91 % 1014,0 hPa 0,0 l/m 0 min 0 min 20 W/m 16,1 km/h (3 Bft) 99,03 %
08.11.2023 09:10 8,5 C 7,8 C 4,4 C 91 % 1014,0 hPa 0,0 l/m 0 min 0 min 23 W/m 9,7 km/h (2 Bft) 95,74 %
08.11.2023 09:12 8,5 C 7,8 C 4,4 C 91 % 1013,9 hPa 0,0 l/m 0 min 0 min 29 W/m 22,5 km/h (4 Bft) 93,62 %
08.11.2023 09:14 8,5 C 7,8 C 4,4 C 91 % 1014,0 hPa 0,0 l/m 0 min 0 min 32 W/m 16,1 km/h (3 Bft) 95,74 %
08.11.2023 09:16 8,6 C 8,3 C 4,4 C 91 % 1014,0 hPa 0,0 l/m 0 min 0 min 33 W/m 12,9 km/h (3 Bft) 93,62 %
08.11.2023 09:18 8,6 C 8,3 C 5,0 C 91 % 1014,0 hPa 0,0 l/m 0 min 0 min 33 W/m 16,1 km/h (3 Bft) 95,65 %
08.11.2023 09:20 8,6 C 8,3 C 5,0 C 91 % 1014,0 hPa 0,0 l/m 0 min 0 min 33 W/m 16,1 km/h (3 Bft) 95,74 %
08.11.2023 09:22 8,7 C 8,3 C 5,0 C 91 % 1014,0 hPa 0,0 l/m 0 min 0 min 33 W/m 16,1 km/h (3 Bft) 93,62 %
08.11.2023 09:24 8,7 C 8,3 C 5,0 C 91 % 1014,0 hPa 0,0 l/m 0 min 0 min 33 W/m 12,9 km/h (3 Bft) 95,74 %
08.11.2023 09:26 8,8 C 8,3 C 5,0 C 91 % 1013,9 hPa 0,0 l/m 0 min 0 min 35 W/m 12,9 km/h (3 Bft) 93,62 %
08.11.2023 09:28 8,8 C 8,3 C 5,0 C 91 % 1013,9 hPa 0,0 l/m 0 min 0 min 38 W/m 12,9 km/h (3 Bft) 93,62 %
08.11.2023 09:30 8,8 C 8,3 C 5,0 C 91 % 1013,9 hPa 0,0 l/m 0 min 0 min 49 W/m 19,3 km/h (3 Bft) 95,74 %
08.11.2023 09:32 8,9 C 8,9 C 5,0 C 91 % 1014,0 hPa 0,0 l/m 0 min 0 min 86 W/m 29,0 km/h (5 Bft) 95,74 %
08.11.2023 09:34 9,0 C 8,9 C 5,0 C 91 % 1014,0 hPa 0,0 l/m 0 min 0 min 89 W/m 19,3 km/h (3 Bft) 93,48 %
08.11.2023 09:36 9,1 C 8,9 C 5,0 C 90 % 1014,0 hPa 0,0 l/m 0 min 0 min 73 W/m 19,3 km/h (3 Bft) 95,74 %
08.11.2023 09:38 9,2 C 8,9 C 5,6 C 90 % 1014,0 hPa 0,0 l/m 0 min 0 min 78 W/m 19,3 km/h (3 Bft) 97,87 %
08.11.2023 09:40 9,2 C 9,4 C 5,6 C 90 % 1014,0 hPa 0,0 l/m 2 min 0 min 196 W/m 29,0 km/h (5 Bft) 93,62 %
08.11.2023 09:42 9,3 C 9,4 C 5,6 C 90 % 1014,0 hPa 0,0 l/m 2 min 0 min 207 W/m 22,5 km/h (4 Bft) 93,62 %
08.11.2023 09:44 9,4 C 9,4 C 5,6 C 90 % 1014,0 hPa 0,0 l/m 2 min 0 min 234 W/m 25,7 km/h (4 Bft) 95,74 %
08.11.2023 09:46 9,5 C 10,0 C 5,6 C 89 % 1013,9 hPa 0,0 l/m 2 min 0 min 251 W/m 19,3 km/h (3 Bft) 95,65 %
08.11.2023 09:48 9,6 C 10,0 C 5,6 C 89 % 1013,9 hPa 0,0 l/m 2 min 0 min 218 W/m 19,3 km/h (3 Bft) 95,74 %
08.11.2023 09:50 9,7 C 10,0 C 6,1 C 89 % 1013,9 hPa 0,0 l/m 2 min 0 min 194 W/m 22,5 km/h (4 Bft) 95,74 %
08.11.2023 09:52 9,7 C 10,0 C 6,1 C 88 % 1013,9 hPa 0,0 l/m 2 min 0 min 132 W/m 19,3 km/h (3 Bft) 95,74 %
08.11.2023 09:54 9,7 C 10,6 C 6,1 C 88 % 1013,9 hPa 0,0 l/m 2 min 0 min 149 W/m 16,1 km/h (3 Bft) 95,74 %
08.11.2023 09:56 9,8 C 10,6 C 6,1 C 88 % 1013,9 hPa 0,0 l/m 2 min 0 min 138 W/m 19,3 km/h (3 Bft) 97,87 %
08.11.2023 09:58 9,8 C 10,6 C 6,1 C 88 % 1013,9 hPa 0,0 l/m 0 min 0 min 120 W/m 19,3 km/h (3 Bft) 100,00 %
08.11.2023 10:00 9,9 C 10,0 C 6,1 C 87 % 1013,9 hPa 0,0 l/m 0 min 0 min 107 W/m 25,7 km/h (4 Bft) 100,00 %
08.11.2023 10:02 9,9 C 10,0 C 6,1 C 87 % 1014,0 hPa 0,0 l/m 0 min 0 min 98 W/m 22,5 km/h (4 Bft) 97,87 %
08.11.2023 10:04 9,9 C 10,0 C 6,1 C 87 % 1014,0 hPa 0,0 l/m 0 min 0 min 86 W/m 29,0 km/h (5 Bft) 98,08 %
08.11.2023 10:08 9,9 C 9,4 C 6,1 C 87 % 1014,0 hPa 0,0 l/m 0 min 0 min 68 W/m 29,0 km/h (5 Bft) 98,11 %
08.11.2023 10:09 9,9 C 9,4 C 6,1 C 86 % 1014,0 hPa 0,0 l/m 0 min 0 min 68 W/m 25,7 km/h (4 Bft) 100,00 %
08.11.2023 10:10 9,9 C 10,0 C 6,1 C 86 % 1014,0 hPa 0,0 l/m 0 min 0 min 72 W/m 29,0 km/h (5 Bft) 100,00 %
08.11.2023 10:14 9,9 C 12,2 C 6,1 C 86 % 1014,0 hPa 0,0 l/m 4 min 0 min 303 W/m 32,2 km/h (5 Bft) 97,96 %
08.11.2023 10:16 10,0 C 14,4 C 6,1 C 86 % 1014,1 hPa 0,0 l/m 2 min 0 min 329 W/m 22,5 km/h (4 Bft) 100,00 %
08.11.2023 10:18 10,1 C 15,0 C 6,1 C 86 % 1014,1 hPa 0,0 l/m 2 min 0 min 316 W/m 22,5 km/h (4 Bft) 100,00 %
08.11.2023 10:20 10,2 C 16,1 C 6,1 C 86 % 1014,1 hPa 0,0 l/m 2 min 0 min 293 W/m 22,5 km/h (4 Bft) 100,00 %
08.11.2023 10:22 10,3 C 15,0 C 6,1 C 86 % 1014,1 hPa 0,0 l/m 2 min 0 min 244 W/m 32,2 km/h (5 Bft) 100,00 %
08.11.2023 10:24 10,4 C 13,9 C 6,7 C 85 % 1014,1 hPa 0,0 l/m 2 min 0 min 174 W/m 22,5 km/h (4 Bft) 95,65 %
08.11.2023 10:26 10,4 C 12,8 C 6,7 C 84 % 1014,1 hPa 0,0 l/m 2 min 0 min 164 W/m 19,3 km/h (3 Bft) 93,62 %
08.11.2023 10:28 10,5 C 11,7 C 6,7 C 84 % 1014,1 hPa 0,0 l/m 0 min 0 min 142 W/m 29,0 km/h (5 Bft) 97,87 %
08.11.2023 10:30 10,5 C 11,1 C 6,7 C 84 % 1014,1 hPa 0,0 l/m 0 min 0 min 152 W/m 32,2 km/h (5 Bft) 97,87 %
08.11.2023 10:32 10,5 C 11,1 C 6,7 C 84 % 1014,1 hPa 0,0 l/m 0 min 0 min 154 W/m 22,5 km/h (4 Bft) 97,87 %
08.11.2023 10:34 10,5 C 10,6 C 6,7 C 83 % 1014,1 hPa 0,0 l/m 2 min 0 min 171 W/m 32,2 km/h (5 Bft) 95,74 %
08.11.2023 10:36 10,5 C 11,1 C 6,7 C 83 % 1014,1 hPa 0,0 l/m 2 min 0 min 190 W/m 19,3 km/h (3 Bft) 95,74 %
08.11.2023 10:38 10,6 C 11,1 C 6,7 C 83 % 1014,1 hPa 0,0 l/m 2 min 0 min 191 W/m 22,5 km/h (4 Bft) 97,83 %
08.11.2023 10:40 10,6 C 11,1 C 6,7 C 83 % 1014,0 hPa 0,0 l/m 0 min 0 min 158 W/m 29,0 km/h (5 Bft) 95,74 %
08.11.2023 10:42 10,6 C 11,1 C 6,7 C 83 % 1014,0 hPa 0,0 l/m 0 min 0 min 158 W/m 22,5 km/h (4 Bft) 95,74 %
08.11.2023 10:44 10,6 C 11,1 C 6,7 C 83 % 1014,0 hPa 0,0 l/m 0 min 0 min 150 W/m 32,2 km/h (5 Bft) 97,87 %
08.11.2023 10:46 10,6 C 10,6 C 6,7 C 83 % 1014,1 hPa 0,0 l/m 0 min 0 min 146 W/m 16,1 km/h (3 Bft) 97,87 %
08.11.2023 10:48 10,6 C 10,6 C 6,7 C 82 % 1014,1 hPa 0,0 l/m 0 min 0 min 144 W/m 25,7 km/h (4 Bft) 97,87 %
08.11.2023 10:50 10,6 C 10,6 C 6,7 C 82 % 1014,0 hPa 0,0 l/m 0 min 0 min 141 W/m 22,5 km/h (4 Bft) 95,74 %
08.11.2023 10:52 10,6 C 10,6 C 6,7 C 82 % 1014,0 hPa 0,0 l/m 0 min 0 min 141 W/m 19,3 km/h (3 Bft) 97,83 %
08.11.2023 10:54 10,6 C 10,6 C 6,7 C 82 % 1014,1 hPa 0,0 l/m 0 min 0 min 141 W/m 25,7 km/h (4 Bft) 95,74 %
08.11.2023 10:56 10,6 C 10,6 C 6,7 C 82 % 1014,1 hPa 0,0 l/m 0 min 0 min 141 W/m 32,2 km/h (5 Bft) 97,87 %
08.11.2023 10:58 10,6 C 10,6 C 6,7 C 82 % 1014,0 hPa 0,0 l/m 0 min 0 min 142 W/m 25,7 km/h (4 Bft) 95,74 %
08.11.2023 11:00 10,6 C 10,6 C 6,7 C 82 % 1014,0 hPa 0,0 l/m 0 min 0 min 141 W/m 25,7 km/h (4 Bft) 100,00 %
08.11.2023 11:02 10,6 C 10,6 C 6,7 C 82 % 1014,0 hPa 0,0 l/m 0 min 0 min 142 W/m 19,3 km/h (3 Bft) 100,00 %
08.11.2023 11:04 10,6 C 10,6 C 6,7 C 82 % 1014,0 hPa 0,0 l/m 0 min 0 min 143 W/m 12,9 km/h (3 Bft) 97,83 %
08.11.2023 11:08 10,6 C 10,6 C 6,7 C 81 % 1014,0 hPa 0,0 l/m 0 min 0 min 144 W/m 35,4 km/h (5 Bft) 100,00 %
08.11.2023 11:09 10,6 C 10,6 C 6,7 C 82 % 1014,0 hPa 0,0 l/m 0 min 0 min 144 W/m 16,1 km/h (3 Bft) 100,00 %
08.11.2023 11:12 10,6 C 10,6 C 6,7 C 81 % 1014,0 hPa 0,0 l/m 0 min 0 min 140 W/m 19,3 km/h (3 Bft) 100,00 %
08.11.2023 11:14 10,7 C 10,6 C 6,7 C 81 % 1014,0 hPa 0,0 l/m 0 min 0 min 132 W/m 19,3 km/h (3 Bft) 100,00 %
08.11.2023 11:16 10,7 C 10,6 C 6,7 C 81 % 1013,9 hPa 0,0 l/m 0 min 0 min 128 W/m 19,3 km/h (3 Bft) 100,00 %
08.11.2023 11:18 10,7 C 10,6 C 6,7 C 81 % 1013,9 hPa 0,0 l/m 0 min 0 min 129 W/m 35,4 km/h (5 Bft) 100,00 %
08.11.2023 11:20 10,7 C 10,6 C 6,7 C 81 % 1014,0 hPa 0,0 l/m 0 min 0 min 131 W/m 22,5 km/h (4 Bft) 100,00 %
08.11.2023 11:22 10,7 C 10,6 C 6,7 C 81 % 1014,0 hPa 0,0 l/m 0 min 0 min 129 W/m 19,3 km/h (3 Bft) 100,00 %
08.11.2023 11:24 10,7 C 10,6 C 6,7 C 81 % 1013,9 hPa 0,0 l/m 0 min 0 min 125 W/m 32,2 km/h (5 Bft) 100,00 %
08.11.2023 11:26 10,7 C 10,6 C 6,7 C 81 % 1014,0 hPa 0,0 l/m 0 min 0 min 117 W/m 29,0 km/h (5 Bft) 100,00 %
08.11.2023 11:28 10,7 C 10,6 C 6,7 C 81 % 1014,0 hPa 0,0 l/m 0 min 0 min 103 W/m 25,7 km/h (4 Bft) 100,00 %
08.11.2023 11:30 10,7 C 10,6 C 6,7 C 81 % 1014,0 hPa 0,0 l/m 0 min 0 min 91 W/m 22,5 km/h (4 Bft) 100,00 %
08.11.2023 11:32 10,7 C 10,6 C 6,7 C 80 % 1014,0 hPa 0,0 l/m 0 min 0 min 85 W/m 35,4 km/h (5 Bft) 97,83 %
08.11.2023 11:34 10,7 C 10,6 C 6,7 C 80 % 1014,0 hPa 0,0 l/m 0 min 0 min 88 W/m 19,3 km/h (3 Bft) 100,00 %
08.11.2023 11:36 10,7 C 10,6 C 6,7 C 80 % 1014,0 hPa 0,0 l/m 0 min 0 min 93 W/m 25,7 km/h (4 Bft) 97,87 %
08.11.2023 11:38 10,7 C 10,6 C 6,7 C 80 % 1013,9 hPa 0,0 l/m 0 min 0 min 92 W/m 25,7 km/h (4 Bft) 97,87 %
08.11.2023 11:40 10,7 C 10,6 C 6,7 C 80 % 1014,0 hPa 0,0 l/m 0 min 0 min 90 W/m 22,5 km/h (4 Bft) 100,00 %
08.11.2023 11:42 10,7 C 10,6 C 6,7 C 80 % 1013,9 hPa 0,0 l/m 0 min 0 min 103 W/m 25,7 km/h (4 Bft) 100,00 %
08.11.2023 11:44 10,7 C 10,6 C 6,7 C 80 % 1013,8 hPa 0,0 l/m 0 min 0 min 122 W/m 16,1 km/h (3 Bft) 100,00 %
08.11.2023 11:46 10,7 C 10,6 C 6,7 C 81 % 1013,7 hPa 0,0 l/m 0 min 0 min 133 W/m 22,5 km/h (4 Bft) 97,87 %
08.11.2023 11:48 10,7 C 10,6 C 6,7 C 81 % 1013,7 hPa 0,0 l/m 0 min 0 min 144 W/m 16,1 km/h (3 Bft) 97,83 %
08.11.2023 11:50 10,8 C 11,1 C 6,7 C 80 % 1013,7 hPa 0,0 l/m 0 min 0 min 148 W/m 25,7 km/h (4 Bft) 97,87 %
08.11.2023 11:52 10,8 C 11,1 C 6,7 C 80 % 1013,7 hPa 0,0 l/m 0 min 0 min 148 W/m 25,7 km/h (4 Bft) 97,87 %
08.11.2023 11:54 10,9 C 11,1 C 6,7 C 80 % 1013,7 hPa 0,0 l/m 0 min 0 min 142 W/m 16,1 km/h (3 Bft) 94,87 %
08.11.2023 11:56 10,9 C 11,1 C 6,7 C 80 % 1013,7 hPa 0,0 l/m 0 min 0 min 139 W/m 19,3 km/h (3 Bft) 70,21 %
08.11.2023 11:58 10,9 C 11,1 C 6,7 C 80 % 1013,7 hPa 0,0 l/m 0 min 0 min 138 W/m 19,3 km/h (3 Bft) 66,67 %
08.11.2023 12:00 10,9 C 11,1 C 6,7 C 80 % 1013,7 hPa 0,0 l/m 0 min 0 min 131 W/m 25,7 km/h (4 Bft) 97,87 %
08.11.2023 12:02 10,9 C 11,1 C 6,7 C 80 % 1013,6 hPa 0,0 l/m 0 min 0 min 125 W/m 16,1 km/h (3 Bft) 95,74 %
08.11.2023 12:04 11,0 C 11,1 C 6,7 C 80 % 1013,6 hPa 0,0 l/m 0 min 0 min 116 W/m 19,3 km/h (3 Bft) 95,56 %
08.11.2023 12:08 11,0 C 10,6 C 6,7 C 80 % 1013,6 hPa 0,0 l/m 0 min 0 min 105 W/m 16,1 km/h (3 Bft) 94,62 %
08.11.2023 12:10 11,0 C 10,6 C 6,7 C 80 % 1013,6 hPa 0,0 l/m 0 min 0 min 99 W/m 19,3 km/h (3 Bft) 93,62 %
08.11.2023 12:12 10,9 C 10,6 C 6,7 C 79 % 1013,5 hPa 0,0 l/m 0 min 0 min 104 W/m 22,5 km/h (4 Bft) 95,74 %
08.11.2023 12:16 10,9 C 10,6 C 6,7 C 79 % 1013,4 hPa 0,0 l/m 0 min 0 min 116 W/m 32,2 km/h (5 Bft) 93,62 %
08.11.2023 12:18 10,9 C 10,6 C 6,7 C 79 % 1013,4 hPa 0,0 l/m 0 min 0 min 130 W/m 25,7 km/h (4 Bft) 95,65 %
08.11.2023 12:20 10,9 C 10,6 C 6,7 C 79 % 1013,4 hPa 0,0 l/m 0 min 0 min 137 W/m 25,7 km/h (4 Bft) 91,49 %
08.11.2023 12:22 10,9 C 10,6 C 6,7 C 78 % 1013,4 hPa 0,0 l/m 0 min 0 min 141 W/m 19,3 km/h (3 Bft) 95,74 %
08.11.2023 12:24 10,9 C 10,6 C 6,7 C 78 % 1013,4 hPa 0,0 l/m 0 min 0 min 142 W/m 25,7 km/h (4 Bft) 91,49 %
08.11.2023 12:26 10,9 C 10,6 C 6,7 C 78 % 1013,4 hPa 0,0 l/m 0 min 0 min 150 W/m 25,7 km/h (4 Bft) 93,62 %
08.11.2023 12:28 10,9 C 11,1 C 6,7 C 79 % 1013,4 hPa 0,0 l/m 0 min 0 min 159 W/m 38,6 km/h (5 Bft) 91,49 %
08.11.2023 12:30 10,9 C 11,1 C 6,7 C 79 % 1013,3 hPa 0,0 l/m 0 min 0 min 169 W/m 16,1 km/h (3 Bft) 93,62 %
08.11.2023 12:32 11,0 C 11,1 C 6,7 C 79 % 1013,3 hPa 0,0 l/m 0 min 0 min 173 W/m 22,5 km/h (4 Bft) 93,48 %
08.11.2023 12:34 11,0 C 11,1 C 7,2 C 78 % 1013,2 hPa 0,0 l/m 0 min 0 min 171 W/m 25,7 km/h (4 Bft) 91,49 %
08.11.2023 12:36 11,1 C 11,1 C 7,2 C 78 % 1013,2 hPa 0,0 l/m 0 min 0 min 167 W/m 12,9 km/h (3 Bft) 93,62 %
08.11.2023 12:38 11,1 C 11,1 C 7,2 C 78 % 1013,1 hPa 0,0 l/m 0 min 0 min 166 W/m 25,7 km/h (4 Bft) 93,62 %
08.11.2023 12:40 11,1 C 11,1 C 7,2 C 78 % 1013,1 hPa 0,0 l/m 0 min 0 min 169 W/m 22,5 km/h (4 Bft) 95,74 %
08.11.2023 12:42 11,1 C 11,1 C 7,2 C 78 % 1013,1 hPa 0,0 l/m 0 min 0 min 170 W/m 22,5 km/h (4 Bft) 95,74 %
08.11.2023 12:44 11,2 C 11,7 C 7,2 C 78 % 1013,2 hPa 0,0 l/m 0 min 0 min 175 W/m 25,7 km/h (4 Bft) 91,49 %
08.11.2023 12:46 11,2 C 11,7 C 7,2 C 78 % 1013,2 hPa 0,0 l/m 0 min 0 min 178 W/m 22,5 km/h (4 Bft) 95,65 %
08.11.2023 12:48 11,3 C 11,7 C 7,2 C 78 % 1013,2 hPa 0,0 l/m 0 min 0 min 182 W/m 32,2 km/h (5 Bft) 95,74 %
08.11.2023 12:50 11,3 C 11,7 C 7,2 C 78 % 1013,2 hPa 0,0 l/m 2 min 0 min 189 W/m 19,3 km/h (3 Bft) 95,74 %
08.11.2023 12:52 11,3 C 11,7 C 7,2 C 78 % 1013,1 hPa 0,0 l/m 0 min 0 min 184 W/m 12,9 km/h (3 Bft) 95,74 %
08.11.2023 12:54 11,4 C 11,7 C 7,2 C 77 % 1013,1 hPa 0,0 l/m 0 min 0 min 166 W/m 25,7 km/h (4 Bft) 93,62 %
08.11.2023 12:56 11,4 C 11,7 C 7,2 C 77 % 1013,2 hPa 0,0 l/m 0 min 0 min 155 W/m 25,7 km/h (4 Bft) 94,00 %
08.11.2023 12:58 11,4 C 11,7 C 7,2 C 77 % 1013,1 hPa 0,0 l/m 0 min 0 min 139 W/m 25,7 km/h (4 Bft) 97,83 %
08.11.2023 13:00 11,4 C 11,7 C 7,2 C 77 % 1013,1 hPa 0,0 l/m 0 min 0 min 138 W/m 16,1 km/h (3 Bft) 97,87 %
08.11.2023 13:02 11,4 C 11,7 C 7,2 C 77 % 1013,1 hPa 0,0 l/m 0 min 0 min 146 W/m 16,1 km/h (3 Bft) 97,87 %
08.11.2023 13:04 11,4 C 11,7 C 7,2 C 77 % 1013,0 hPa 0,0 l/m 0 min 0 min 155 W/m 22,5 km/h (4 Bft) 97,83 %
08.11.2023 13:10 11,4 C 11,1 C 7,2 C 76 % 1013,0 hPa 0,0 l/m 0 min 0 min 138 W/m 38,6 km/h (5 Bft) 97,14 %
08.11.2023 13:12 11,4 C 11,1 C 7,2 C 76 % 1012,9 hPa 0,0 l/m 0 min 0 min 107 W/m 22,5 km/h (4 Bft) 100,00 %
08.11.2023 13:14 11,4 C 11,1 C 7,2 C 76 % 1013,0 hPa 0,0 l/m 0 min 0 min 104 W/m 22,5 km/h (4 Bft) 100,00 %
08.11.2023 13:16 11,4 C 11,1 C 7,2 C 76 % 1012,9 hPa 0,0 l/m 0 min 0 min 116 W/m 16,1 km/h (3 Bft) 98,00 %
08.11.2023 13:18 11,4 C 11,1 C 7,2 C 77 % 1012,9 hPa 0,0 l/m 0 min 0 min 135 W/m 6,4 km/h (2 Bft) 95,65 %
08.11.2023 13:20 11,4 C 11,7 C 7,2 C 77 % 1012,9 hPa 0,0 l/m 0 min 0 min 150 W/m 19,3 km/h (3 Bft) 100,00 %
08.11.2023 13:22 11,4 C 11,7 C 7,2 C 76 % 1012,9 hPa 0,0 l/m 0 min 0 min 152 W/m 35,4 km/h (5 Bft) 93,62 %
08.11.2023 13:24 11,4 C 11,7 C 7,2 C 76 % 1012,8 hPa 0,0 l/m 0 min 0 min 151 W/m 35,4 km/h (5 Bft) 91,49 %
08.11.2023 13:26 11,5 C 11,7 C 7,2 C 76 % 1012,8 hPa 0,0 l/m 0 min 0 min 154 W/m 19,3 km/h (3 Bft) 91,49 %
08.11.2023 13:28 11,5 C 11,7 C 7,2 C 76 % 1012,8 hPa 0,0 l/m 0 min 0 min 154 W/m 19,3 km/h (3 Bft) 100,00 %
08.11.2023 13:30 11,6 C 11,7 C 7,2 C 76 % 1012,8 hPa 0,0 l/m 0 min 0 min 147 W/m 19,3 km/h (3 Bft) 97,87 %
08.11.2023 13:32 11,6 C 11,7 C 7,2 C 77 % 1012,8 hPa 0,0 l/m 0 min 0 min 138 W/m 19,3 km/h (3 Bft) 100,00 %
08.11.2023 13:34 11,6 C 11,7 C 7,2 C 76 % 1012,7 hPa 0,0 l/m 0 min 0 min 127 W/m 22,5 km/h (4 Bft) 97,87 %
08.11.2023 13:36 11,6 C 11,7 C 7,2 C 76 % 1012,7 hPa 0,0 l/m 0 min 0 min 121 W/m 22,5 km/h (4 Bft) 95,74 %
08.11.2023 13:38 11,6 C 11,7 C 7,2 C 76 % 1012,8 hPa 0,0 l/m 0 min 0 min 118 W/m 19,3 km/h (3 Bft) 93,62 %
08.11.2023 13:40 11,6 C 11,1 C 7,2 C 76 % 1012,8 hPa 0,0 l/m 0 min 0 min 113 W/m 32,2 km/h (5 Bft) 85,11 %
08.11.2023 13:42 11,6 C 11,1 C 7,2 C 76 % 1012,8 hPa 0,0 l/m 0 min 0 min 109 W/m 29,0 km/h (5 Bft) 85,11 %
08.11.2023 13:44 11,6 C 11,1 C 7,2 C 76 % 1012,7 hPa 0,0 l/m 0 min 0 min 112 W/m 38,6 km/h (5 Bft) 93,62 %
08.11.2023 13:46 11,6 C 11,1 C 7,2 C 75 % 1012,6 hPa 0,0 l/m 0 min 0 min 115 W/m 38,6 km/h (5 Bft) 97,87 %
08.11.2023 13:48 11,6 C 11,7 C 7,2 C 75 % 1012,7 hPa 0,0 l/m 0 min 0 min 118 W/m 25,7 km/h (4 Bft) 95,65 %
08.11.2023 13:50 11,6 C 11,1 C 7,2 C 75 % 1012,6 hPa 0,0 l/m 0 min 0 min 108 W/m 25,7 km/h (4 Bft) 97,87 %
08.11.2023 13:52 11,6 C 11,1 C 7,2 C 75 % 1012,6 hPa 0,0 l/m 0 min 0 min 96 W/m 19,3 km/h (3 Bft) 97,87 %
08.11.2023 13:54 11,6 C 11,1 C 7,2 C 75 % 1012,7 hPa 0,0 l/m 0 min 0 min 91 W/m 16,1 km/h (3 Bft) 100,00 %
08.11.2023 13:56 11,6 C 11,1 C 7,2 C 75 % 1012,7 hPa 0,0 l/m 0 min 0 min 93 W/m 12,9 km/h (3 Bft) 91,49 %
08.11.2023 13:58 11,7 C 11,1 C 7,2 C 75 % 1012,6 hPa 0,0 l/m 0 min 0 min 103 W/m 12,9 km/h (3 Bft) 87,50 %
08.11.2023 14:00 11,6 C 11,1 C 7,2 C 76 % 1012,6 hPa 0,0 l/m 0 min 0 min 104 W/m 12,9 km/h (3 Bft) 100,00 %
08.11.2023 14:02 11,7 C 11,1 C 7,2 C 76 % 1012,6 hPa 0,0 l/m 0 min 0 min 97 W/m 12,9 km/h (3 Bft) 97,87 %
08.11.2023 14:04 11,6 C 11,1 C 7,2 C 75 % 1012,5 hPa 0,0 l/m 0 min 0 min 94 W/m 16,1 km/h (3 Bft) 100,00 %
08.11.2023 14:10 11,6 C 11,1 C 7,2 C 74 % 1012,5 hPa 0,0 l/m 0 min 0 min 82 W/m 29,0 km/h (5 Bft) 100,00 %
08.11.2023 14:12 11,6 C 11,1 C 7,2 C 74 % 1012,5 hPa 0,0 l/m 0 min 0 min 66 W/m 32,2 km/h (5 Bft) 95,65 %
08.11.2023 14:14 11,6 C 11,1 C 7,2 C 74 % 1012,5 hPa 0,0 l/m 0 min 0 min 60 W/m 29,0 km/h (5 Bft) 100,00 %
08.11.2023 14:16 11,5 C 11,1 C 7,2 C 74 % 1012,5 hPa 0,0 l/m 0 min 0 min 60 W/m 32,2 km/h (5 Bft) 97,87 %
08.11.2023 14:18 11,4 C 10,6 C 7,2 C 74 % 1012,4 hPa 0,0 l/m 0 min 0 min 61 W/m 25,7 km/h (4 Bft) 95,74 %
08.11.2023 14:20 11,4 C 11,1 C 7,2 C 75 % 1012,4 hPa 0,0 l/m 0 min 0 min 61 W/m 12,9 km/h (3 Bft) 100,00 %
08.11.2023 14:22 11,4 C 11,1 C 7,2 C 75 % 1012,4 hPa 0,0 l/m 0 min 0 min 60 W/m 6,4 km/h (2 Bft) 100,00 %
08.11.2023 14:24 11,4 C 11,1 C 7,2 C 75 % 1012,4 hPa 0,0 l/m 0 min 0 min 61 W/m 38,6 km/h (5 Bft) 100,00 %
08.11.2023 14:26 11,4 C 11,1 C 7,2 C 75 % 1012,3 hPa 0,0 l/m 0 min 0 min 64 W/m 25,7 km/h (4 Bft) 97,83 %
08.11.2023 14:28 11,4 C 10,6 C 7,2 C 75 % 1012,3 hPa 0,0 l/m 0 min 0 min 64 W/m 19,3 km/h (3 Bft) 95,74 %
08.11.2023 14:30 11,4 C 10,6 C 7,2 C 75 % 1012,3 hPa 0,0 l/m 0 min 0 min 64 W/m 19,3 km/h (3 Bft) 95,74 %
08.11.2023 14:32 11,4 C 10,6 C 7,2 C 75 % 1012,2 hPa 0,0 l/m 0 min 0 min 72 W/m 12,9 km/h (3 Bft) 93,62 %
08.11.2023 14:34 11,4 C 11,1 C 7,2 C 75 % 1012,2 hPa 0,0 l/m 0 min 0 min 76 W/m 22,5 km/h (4 Bft) 96,00 %
08.11.2023 14:36 11,4 C 11,1 C 7,2 C 75 % 1012,2 hPa 0,0 l/m 0 min 0 min 71 W/m 16,1 km/h (3 Bft) 93,62 %
08.11.2023 14:38 11,4 C 11,1 C 7,2 C 75 % 1012,2 hPa 0,0 l/m 0 min 0 min 69 W/m 16,1 km/h (3 Bft) 95,74 %
08.11.2023 14:40 11,4 C 11,1 C 7,2 C 75 % 1012,2 hPa 0,0 l/m 0 min 0 min 73 W/m 25,7 km/h (4 Bft) 95,74 %
08.11.2023 14:42 11,4 C 11,1 C 7,2 C 75 % 1012,2 hPa 0,0 l/m 0 min 0 min 81 W/m 19,3 km/h (3 Bft) 95,74 %
08.11.2023 14:44 11,4 C 11,1 C 7,2 C 75 % 1012,2 hPa 0,0 l/m 0 min 0 min 84 W/m 45,1 km/h (6 Bft) 93,62 %
08.11.2023 14:46 11,4 C 11,1 C 7,2 C 75 % 1012,1 hPa 0,0 l/m 0 min 0 min 77 W/m 22,5 km/h (4 Bft) 93,62 %
08.11.2023 14:48 11,4 C 11,1 C 7,2 C 75 % 1012,1 hPa 0,0 l/m 0 min 0 min 57 W/m 25,7 km/h (4 Bft) 95,65 %
08.11.2023 14:50 11,4 C 11,1 C 7,2 C 75 % 1012,1 hPa 0,0 l/m 0 min 0 min 50 W/m 22,5 km/h (4 Bft) 95,74 %
08.11.2023 14:52 11,4 C 11,1 C 7,2 C 75 % 1012,0 hPa 0,0 l/m 0 min 0 min 49 W/m 19,3 km/h (3 Bft) 93,62 %
08.11.2023 14:54 11,4 C 10,6 C 7,2 C 75 % 1012,0 hPa 0,0 l/m 0 min 0 min 49 W/m 25,7 km/h (4 Bft) 93,62 %
08.11.2023 14:56 11,4 C 10,6 C 7,2 C 75 % 1012,0 hPa 0,0 l/m 0 min 0 min 49 W/m 16,1 km/h (3 Bft) 91,49 %
08.11.2023 14:58 11,4 C 10,6 C 7,2 C 75 % 1012,0 hPa 0,0 l/m 0 min 0 min 46 W/m 16,1 km/h (3 Bft) 91,49 %
08.11.2023 15:00 11,4 C 10,6 C 7,2 C 75 % 1012,0 hPa 0,0 l/m 0 min 0 min 42 W/m 29,0 km/h (5 Bft) 93,62 %
08.11.2023 15:02 11,4 C 10,6 C 7,2 C 75 % 1012,0 hPa 0,0 l/m 0 min 0 min 41 W/m 22,5 km/h (4 Bft) 93,48 %
08.11.2023 15:04 11,4 C 10,6 C 7,2 C 75 % 1012,0 hPa 0,0 l/m 0 min 0 min 42 W/m 38,6 km/h (5 Bft) 98,04 %
08.11.2023 15:08 11,4 C 10,6 C 7,2 C 75 % 1011,8 hPa 0,0 l/m 0 min 0 min 42 W/m 16,1 km/h (3 Bft) 94,85 %
08.11.2023 15:09 11,4 C 10,6 C 7,2 C 75 % 1011,8 hPa 0,0 l/m 0 min 0 min 42 W/m 6,4 km/h (2 Bft) 95,65 %
08.11.2023 15:12 11,4 C 10,6 C 7,2 C 75 % 1011,7 hPa 0,0 l/m 0 min 0 min 44 W/m 9,7 km/h (2 Bft) 94,92 %
08.11.2023 15:14 11,4 C 10,6 C 7,2 C 75 % 1011,7 hPa 0,0 l/m 0 min 0 min 47 W/m 12,9 km/h (3 Bft) 93,62 %
08.11.2023 15:16 11,4 C 10,6 C 7,2 C 75 % 1011,7 hPa 0,0 l/m 0 min 0 min 47 W/m 16,1 km/h (3 Bft) 95,65 %
08.11.2023 15:18 11,4 C 10,6 C 7,2 C 76 % 1011,6 hPa 0,0 l/m 0 min 0 min 45 W/m 22,5 km/h (4 Bft) 97,87 %
08.11.2023 15:20 11,4 C 10,6 C 7,2 C 75 % 1011,7 hPa 0,0 l/m 0 min 0 min 40 W/m 35,4 km/h (5 Bft) 95,74 %
08.11.2023 15:22 11,3 C 10,6 C 7,2 C 75 % 1011,7 hPa 0,0 l/m 0 min 0 min 37 W/m 25,7 km/h (4 Bft) 97,87 %
08.11.2023 15:24 11,3 C 10,6 C 7,2 C 75 % 1011,6 hPa 0,0 l/m 0 min 0 min 34 W/m 22,5 km/h (4 Bft) 97,87 %
08.11.2023 15:26 11,3 C 10,6 C 7,2 C 75 % 1011,5 hPa 0,0 l/m 0 min 0 min 32 W/m 22,5 km/h (4 Bft) 95,74 %
08.11.2023 15:28 11,3 C 10,6 C 6,7 C 75 % 1011,5 hPa 0,0 l/m 0 min 0 min 33 W/m 12,9 km/h (3 Bft) 95,74 %
08.11.2023 15:30 11,3 C 10,6 C 6,7 C 75 % 1011,5 hPa 0,0 l/m 0 min 0 min 39 W/m 19,3 km/h (3 Bft) 97,83 %
08.11.2023 15:32 11,3 C 10,6 C 6,7 C 76 % 1011,4 hPa 0,0 l/m 0 min 0 min 37 W/m 22,5 km/h (4 Bft) 97,87 %
08.11.2023 15:34 11,2 C 10,6 C 6,7 C 76 % 1011,3 hPa 0,0 l/m 0 min 0 min 34 W/m 12,9 km/h (3 Bft) 97,87 %
08.11.2023 15:36 11,2 C 10,6 C 6,7 C 76 % 1011,4 hPa 0,0 l/m 0 min 0 min 30 W/m 22,5 km/h (4 Bft) 97,87 %
08.11.2023 15:38 11,2 C 10,6 C 6,7 C 76 % 1011,4 hPa 0,0 l/m 0 min 0 min 27 W/m 22,5 km/h (4 Bft) 97,87 %
08.11.2023 15:40 11,2 C 10,6 C 6,7 C 76 % 1011,3 hPa 0,0 l/m 0 min 0 min 26 W/m 12,9 km/h (3 Bft) 97,87 %
08.11.2023 15:42 11,2 C 10,6 C 6,7 C 76 % 1011,4 hPa 0,0 l/m 0 min 0 min 25 W/m 16,1 km/h (3 Bft) 97,87 %
08.11.2023 15:44 11,1 C 10,6 C 6,7 C 76 % 1011,4 hPa 0,0 l/m 0 min 0 min 25 W/m 12,9 km/h (3 Bft) 97,83 %
08.11.2023 15:46 11,1 C 10,6 C 6,7 C 76 % 1011,4 hPa 0,0 l/m 0 min 0 min 25 W/m 12,9 km/h (3 Bft) 100,00 %
08.11.2023 15:48 11,1 C 10,6 C 6,7 C 76 % 1011,3 hPa 0,0 l/m 0 min 0 min 25 W/m 12,9 km/h (3 Bft) 97,87 %
08.11.2023 15:50 11,1 C 10,6 C 6,7 C 76 % 1011,3 hPa 0,0 l/m 0 min 0 min 23 W/m 12,9 km/h (3 Bft) 100,00 %
08.11.2023 15:52 11,1 C 10,6 C 6,7 C 76 % 1011,3 hPa 0,0 l/m 0 min 0 min 21 W/m 12,9 km/h (3 Bft) 97,87 %
08.11.2023 15:54 11,1 C 10,6 C 6,7 C 76 % 1011,2 hPa 0,0 l/m 0 min 0 min 19 W/m 12,9 km/h (3 Bft) 100,00 %
08.11.2023 15:56 11,1 C 10,6 C 6,7 C 77 % 1011,1 hPa 0,0 l/m 0 min 0 min 21 W/m 16,1 km/h (3 Bft) 100,00 %
08.11.2023 15:58 11,0 C 10,6 C 6,7 C 77 % 1011,1 hPa 0,0 l/m 0 min 2 min 21 W/m 19,3 km/h (3 Bft) 100,00 %
08.11.2023 16:00 11,0 C 10,0 C 6,7 C 77 % 1011,0 hPa 0,0 l/m 0 min 0 min 21 W/m 12,9 km/h (3 Bft) 100,00 %
08.11.2023 16:02 11,0 C 10,0 C 6,7 C 78 % 1011,0 hPa 0,0 l/m 0 min 0 min 21 W/m 19,3 km/h (3 Bft) 100,00 %
08.11.2023 16:04 10,9 C 10,0 C 6,7 C 78 % 1011,0 hPa 0,0 l/m 0 min 0 min 21 W/m 12,9 km/h (3 Bft) 100,00 %
08.11.2023 16:06 10,9 C 10,0 C 6,7 C 78 % 1011,0 hPa 0,0 l/m 0 min 2 min 21 W/m 19,3 km/h (3 Bft) 97,87 %
08.11.2023 16:08 10,9 C 10,0 C 6,7 C 78 % 1011,0 hPa 0,0 l/m 0 min 0 min 19 W/m 19,3 km/h (3 Bft) 100,00 %
08.11.2023 16:10 10,8 C 10,0 C 6,1 C 79 % 1010,9 hPa 0,0 l/m 0 min 0 min 19 W/m 12,9 km/h (3 Bft) 100,00 %
08.11.2023 16:12 10,8 C 10,0 C 6,1 C 79 % 1010,9 hPa 0,0 l/m 0 min 2 min 20 W/m 12,9 km/h (3 Bft) 100,00 %
08.11.2023 16:14 10,8 C 10,0 C 6,1 C 79 % 1010,8 hPa 0,0 l/m 0 min 2 min 21 W/m 22,5 km/h (4 Bft) 100,00 %
08.11.2023 16:16 10,7 C 10,0 C 6,1 C 80 % 1010,8 hPa 0,0 l/m 0 min 2 min 18 W/m 29,0 km/h (5 Bft) 97,87 %
08.11.2023 16:18 10,7 C 10,0 C 6,1 C 80 % 1010,7 hPa 0,0 l/m 0 min 2 min 17 W/m 16,1 km/h (3 Bft) 100,00 %
08.11.2023 16:20 10,7 C 10,0 C 6,1 C 80 % 1010,8 hPa 0,0 l/m 0 min 0 min 16 W/m 12,9 km/h (3 Bft) 95,74 %
08.11.2023 16:22 10,7 C 10,0 C 6,1 C 80 % 1010,7 hPa 0,0 l/m 0 min 0 min 14 W/m 19,3 km/h (3 Bft) 100,00 %
08.11.2023 16:24 10,6 C 10,0 C 6,1 C 80 % 1010,7 hPa 0,0 l/m 0 min 0 min 13 W/m 16,1 km/h (3 Bft) 100,00 %
08.11.2023 16:26 10,6 C 10,0 C 6,1 C 80 % 1010,6 hPa 0,0 l/m 0 min 0 min 11 W/m 12,9 km/h (3 Bft) 97,87 %
08.11.2023 16:28 10,6 C 10,0 C 6,1 C 81 % 1010,6 hPa 0,0 l/m 0 min 0 min 11 W/m 12,9 km/h (3 Bft) 48,72 %
08.11.2023 16:30 10,6 C 10,0 C 6,1 C 81 % 1010,5 hPa 0,0 l/m 0 min 0 min 10 W/m 12,9 km/h (3 Bft) 97,37 %
08.11.2023 16:32 10,5 C 10,0 C 6,1 C 81 % 1010,5 hPa 0,0 l/m 0 min 0 min 7 W/m 25,7 km/h (4 Bft) 97,87 %
08.11.2023 16:34 10,5 C 10,0 C 6,1 C 81 % 1010,5 hPa 0,0 l/m 0 min 0 min 6 W/m 6,4 km/h (2 Bft) 97,87 %
08.11.2023 16:36 10,4 C 10,0 C 6,1 C 81 % 1010,4 hPa 0,0 l/m 0 min 0 min 5 W/m 16,1 km/h (3 Bft) 97,87 %
08.11.2023 16:38 10,4 C 10,0 C 6,1 C 80 % 1010,4 hPa 0,0 l/m 0 min 0 min 5 W/m 16,1 km/h (3 Bft) 97,87 %
08.11.2023 16:40 10,4 C 10,0 C 6,1 C 80 % 1010,4 hPa 0,0 l/m 0 min 0 min 5 W/m 12,9 km/h (3 Bft) 97,83 %
08.11.2023 16:42 10,4 C 10,0 C 6,1 C 80 % 1010,3 hPa 0,0 l/m 0 min 0 min 5 W/m 16,1 km/h (3 Bft) 97,87 %
08.11.2023 16:44 10,4 C 10,0 C 6,1 C 80 % 1010,3 hPa 0,0 l/m 0 min 0 min 3 W/m 12,9 km/h (3 Bft) 97,87 %
08.11.2023 16:46 10,4 C 9,4 C 6,1 C 80 % 1010,3 hPa 0,0 l/m 0 min 0 min 0 W/m 12,9 km/h (3 Bft) 97,87 %
08.11.2023 16:48 10,4 C 9,4 C 6,1 C 81 % 1010,2 hPa 0,0 l/m 0 min 0 min 0 W/m 6,4 km/h (2 Bft) 95,74 %
08.11.2023 16:50 10,4 C 9,4 C 6,1 C 81 % 1010,1 hPa 0,0 l/m 0 min 0 min 0 W/m 16,1 km/h (3 Bft) 97,87 %
08.11.2023 16:52 10,4 C 9,4 C 6,1 C 81 % 1010,1 hPa 0,0 l/m 0 min 0 min 0 W/m 9,7 km/h (2 Bft) 97,87 %
08.11.2023 16:54 10,4 C 9,4 C 6,1 C 81 % 1010,1 hPa 0,0 l/m 0 min 0 min 0 W/m 16,1 km/h (3 Bft) 97,87 %
08.11.2023 16:56 10,4 C 9,4 C 6,1 C 81 % 1010,0 hPa 0,0 l/m 0 min 0 min 0 W/m 12,9 km/h (3 Bft) 92,11 %
08.11.2023 16:58 10,3 C 9,4 C 6,1 C 81 % 1010,0 hPa 0,0 l/m 0 min 0 min 0 W/m 19,3 km/h (3 Bft) 97,83 %
08.11.2023 17:00 10,3 C 9,4 C 6,1 C 81 % 1010,0 hPa 0,0 l/m 0 min 0 min 0 W/m 16,1 km/h (3 Bft) 97,87 %
08.11.2023 17:02 10,3 C 9,4 C 6,1 C 81 % 1010,0 hPa 0,0 l/m 0 min 0 min 0 W/m 6,4 km/h (2 Bft) 100,00 %
08.11.2023 17:04 10,3 C 9,4 C 6,1 C 81 % 1009,9 hPa 0,0 l/m 0 min 0 min 0 W/m 12,9 km/h (3 Bft) 100,00 %
08.11.2023 17:10 10,3 C 9,4 C 6,1 C 81 % 1009,9 hPa 0,0 l/m 0 min 5 min 0 W/m 16,1 km/h (3 Bft) 97,87 %
08.11.2023 17:12 10,3 C 9,4 C 6,1 C 81 % 1009,9 hPa 0,0 l/m 0 min 2 min 0 W/m 6,4 km/h (2 Bft) 97,83 %
08.11.2023 17:14 10,3 C 9,4 C 6,1 C 82 % 1009,9 hPa 0,0 l/m 0 min 0 min 0 W/m 9,7 km/h (2 Bft) 100,00 %
08.11.2023 17:16 10,3 C 9,4 C 6,1 C 82 % 1010,0 hPa 0,0 l/m 0 min 2 min 0 W/m 12,9 km/h (3 Bft) 97,87 %
08.11.2023 17:18 10,2 C 9,4 C 5,6 C 82 % 1009,9 hPa 0,0 l/m 0 min 2 min 0 W/m 3,2 km/h (1 Bft) 100,00 %
08.11.2023 17:20 10,2 C 9,4 C 5,6 C 83 % 1009,9 hPa 0,0 l/m 0 min 2 min 0 W/m 9,7 km/h (2 Bft) 95,74 %
08.11.2023 17:22 10,2 C 9,4 C 5,0 C 83 % 1009,8 hPa 0,0 l/m 0 min 2 min 0 W/m 19,3 km/h (3 Bft) 97,87 %
08.11.2023 17:24 10,1 C 9,4 C 5,0 C 83 % 1009,9 hPa 0,0 l/m 0 min 2 min 0 W/m 6,4 km/h (2 Bft) 97,87 %
08.11.2023 17:26 10,1 C 8,9 C 5,0 C 84 % 1009,8 hPa 0,2 l/m 0 min 2 min 0 W/m 12,9 km/h (3 Bft) 95,74 %
08.11.2023 17:28 10,1 C 8,9 C 5,0 C 84 % 1009,8 hPa 0,0 l/m 0 min 2 min 0 W/m 6,4 km/h (2 Bft) 100,00 %
08.11.2023 17:30 10,0 C 8,9 C 5,0 C 84 % 1009,7 hPa 0,0 l/m 0 min 0 min 0 W/m 12,9 km/h (3 Bft) 93,62 %
08.11.2023 17:32 9,9 C 8,9 C 5,0 C 84 % 1009,7 hPa 0,0 l/m 0 min 0 min 0 W/m 12,9 km/h (3 Bft) 97,83 %
08.11.2023 17:34 9,9 C 8,9 C 5,0 C 84 % 1009,7 hPa 0,0 l/m 0 min 0 min 0 W/m 12,9 km/h (3 Bft) 91,49 %
08.11.2023 17:36 9,9 C 8,9 C 5,0 C 85 % 1009,7 hPa 0,0 l/m 0 min 2 min 0 W/m 19,3 km/h (3 Bft) 95,74 %
08.11.2023 17:38 9,9 C 8,9 C 5,0 C 85 % 1009,6 hPa 0,0 l/m 0 min 0 min 0 W/m 16,1 km/h (3 Bft) 95,74 %
08.11.2023 17:40 9,8 C 8,9 C 5,0 C 85 % 1009,5 hPa 0,0 l/m 0 min 2 min 0 W/m 16,1 km/h (3 Bft) 95,74 %
08.11.2023 17:42 9,8 C 8,9 C 5,0 C 85 % 1009,5 hPa 0,0 l/m 0 min 2 min 0 W/m 16,1 km/h (3 Bft) 95,74 %
08.11.2023 17:44 9,8 C 8,9 C 5,0 C 85 % 1009,6 hPa 0,0 l/m 0 min 2 min 0 W/m 19,3 km/h (3 Bft) 95,74 %
08.11.2023 17:46 9,8 C 8,9 C 5,0 C 85 % 1009,5 hPa 0,0 l/m 0 min 2 min 0 W/m 6,4 km/h (2 Bft) 95,74 %
08.11.2023 17:48 9,8 C 8,9 C 4,4 C 86 % 1009,5 hPa 0,0 l/m 0 min 2 min 0 W/m 12,9 km/h (3 Bft) 93,48 %
08.11.2023 17:50 9,8 C 8,9 C 4,4 C 86 % 1009,5 hPa 0,2 l/m 0 min 2 min 0 W/m 19,3 km/h (3 Bft) 95,74 %
08.11.2023 17:52 9,7 C 8,3 C 4,4 C 87 % 1009,5 hPa 0,2 l/m 0 min 2 min 0 W/m 16,1 km/h (3 Bft) 95,74 %
08.11.2023 17:54 9,7 C 8,3 C 4,4 C 87 % 1009,5 hPa 0,0 l/m 0 min 2 min 0 W/m 19,3 km/h (3 Bft) 95,74 %
08.11.2023 17:56 9,7 C 8,3 C 4,4 C 87 % 1009,5 hPa 0,0 l/m 0 min 2 min 0 W/m 19,3 km/h (3 Bft) 96,00 %
08.11.2023 17:58 9,6 C 8,3 C 4,4 C 88 % 1009,5 hPa 0,2 l/m 0 min 2 min 0 W/m 25,7 km/h (4 Bft) 95,74 %
08.11.2023 18:00 9,6 C 8,3 C 4,4 C 88 % 1009,5 hPa 0,0 l/m 0 min 2 min 0 W/m 16,1 km/h (3 Bft) 93,48 %
08.11.2023 18:02 9,5 C 8,3 C 4,4 C 88 % 1009,5 hPa 0,0 l/m 0 min 2 min 0 W/m 9,7 km/h (2 Bft) 93,62 %
08.11.2023 18:04 9,4 C 8,3 C 4,4 C 89 % 1009,5 hPa 0,0 l/m 0 min 0 min 0 W/m 12,9 km/h (3 Bft) 97,56 %
08.11.2023 18:08 9,3 C 8,3 C 4,4 C 89 % 1009,5 hPa 0,0 l/m 0 min 0 min 0 W/m 12,9 km/h (3 Bft) 93,14 %
08.11.2023 18:10 9,3 C 8,3 C 4,4 C 89 % 1009,4 hPa 0,0 l/m 0 min 0 min 0 W/m 12,9 km/h (3 Bft) 97,87 %
08.11.2023 18:12 9,3 C 8,3 C 4,4 C 90 % 1009,4 hPa 0,0 l/m 0 min 0 min 0 W/m 16,1 km/h (3 Bft) 100,00 %
08.11.2023 18:16 9,3 C 8,3 C 4,4 C 90 % 1009,3 hPa 0,0 l/m 0 min 0 min 0 W/m 19,3 km/h (3 Bft) 95,74 %
08.11.2023 18:18 9,2 C 8,3 C 4,4 C 90 % 1009,3 hPa 0,0 l/m 0 min 0 min 0 W/m 12,9 km/h (3 Bft) 97,87 %
08.11.2023 18:20 9,2 C 8,3 C 3,9 C 90 % 1009,3 hPa 0,0 l/m 0 min 0 min 0 W/m 16,1 km/h (3 Bft) 97,87 %
08.11.2023 18:22 9,2 C 8,3 C 3,9 C 90 % 1009,2 hPa 0,0 l/m 0 min 0 min 0 W/m 12,9 km/h (3 Bft) 95,74 %
08.11.2023 18:24 9,2 C 8,3 C 3,9 C 90 % 1009,2 hPa 0,0 l/m 0 min 0 min 0 W/m 9,7 km/h (2 Bft) 93,48 %
08.11.2023 18:26 9,2 C 8,3 C 3,9 C 90 % 1009,1 hPa 0,0 l/m 0 min 0 min 0 W/m 19,3 km/h (3 Bft) 95,74 %
08.11.2023 18:28 9,2 C 8,3 C 4,4 C 90 % 1009,2 hPa 0,0 l/m 0 min 0 min 0 W/m 12,9 km/h (3 Bft) 95,74 %
08.11.2023 18:30 9,2 C 8,3 C 3,9 C 91 % 1009,2 hPa 0,0 l/m 0 min 0 min 0 W/m 12,9 km/h (3 Bft) 100,00 %
08.11.2023 18:32 9,2 C 8,3 C 3,9 C 91 % 1009,1 hPa 0,0 l/m 0 min 0 min 0 W/m 19,3 km/h (3 Bft) 95,74 %
08.11.2023 18:34 9,2 C 8,3 C 3,9 C 91 % 1009,1 hPa 0,0 l/m 0 min 0 min 0 W/m 16,1 km/h (3 Bft) 93,62 %
08.11.2023 18:36 9,2 C 8,3 C 3,9 C 91 % 1009,1 hPa 0,0 l/m 0 min 0 min 0 W/m 16,1 km/h (3 Bft) 97,87 %
08.11.2023 18:38 9,2 C 8,3 C 4,4 C 91 % 1009,1 hPa 0,0 l/m 0 min 2 min 0 W/m 12,9 km/h (3 Bft) 97,87 %
08.11.2023 18:40 9,2 C 8,3 C 3,9 C 91 % 1009,1 hPa 0,0 l/m 0 min 0 min 0 W/m 19,3 km/h (3 Bft) 95,74 %
08.11.2023 18:42 9,2 C 8,3 C 3,9 C 91 % 1009,1 hPa 0,0 l/m 0 min 0 min 0 W/m 19,3 km/h (3 Bft) 97,87 %
08.11.2023 18:44 9,2 C 8,3 C 3,9 C 91 % 1009,0 hPa 0,0 l/m 0 min 0 min 0 W/m 16,1 km/h (3 Bft) 97,83 %
08.11.2023 18:46 9,2 C 8,3 C 3,9 C 90 % 1009,0 hPa 0,0 l/m 0 min 0 min 0 W/m 19,3 km/h (3 Bft) 97,87 %
08.11.2023 18:48 9,3 C 8,3 C 3,9 C 90 % 1009,0 hPa 0,0 l/m 0 min 0 min 0 W/m 12,9 km/h (3 Bft) 97,87 %
08.11.2023 18:50 9,3 C 8,3 C 4,4 C 91 % 1008,9 hPa 0,0 l/m 0 min 0 min 0 W/m 19,3 km/h (3 Bft) 100,00 %
08.11.2023 18:52 9,3 C 8,9 C 4,4 C 91 % 1008,9 hPa 0,0 l/m 0 min 0 min 0 W/m 16,1 km/h (3 Bft) 100,00 %
08.11.2023 18:54 9,3 C 8,9 C 4,4 C 91 % 1008,9 hPa 0,0 l/m 0 min 0 min 0 W/m 16,1 km/h (3 Bft) 100,00 %
08.11.2023 18:56 9,3 C 8,9 C 3,9 C 90 % 1008,9 hPa 0,0 l/m 0 min 0 min 0 W/m 12,9 km/h (3 Bft) 95,74 %
08.11.2023 18:58 9,3 C 8,9 C 4,4 C 90 % 1008,9 hPa 0,0 l/m 0 min 0 min 0 W/m 12,9 km/h (3 Bft) 97,87 %
08.11.2023 19:00 9,3 C 8,9 C 4,4 C 90 % 1008,8 hPa 0,0 l/m 0 min 0 min 0 W/m 19,3 km/h (3 Bft) 100,00 %
08.11.2023 19:02 9,3 C 8,9 C 4,4 C 90 % 1008,8 hPa 0,0 l/m 0 min 0 min 0 W/m 16,1 km/h (3 Bft) 100,00 %
08.11.2023 19:04 9,3 C 8,9 C 4,4 C 90 % 1008,7 hPa 0,0 l/m 0 min 0 min 0 W/m 12,9 km/h (3 Bft) 100,00 %
08.11.2023 19:06 9,3 C 8,9 C 4,4 C 90 % 1008,8 hPa 0,0 l/m 0 min 0 min 0 W/m 16,1 km/h (3 Bft) 100,00 %
08.11.2023 19:08 9,4 C 8,9 C 4,4 C 90 % 1008,7 hPa 0,0 l/m 0 min 0 min 0 W/m 22,5 km/h (4 Bft) 100,00 %
08.11.2023 19:10 9,4 C 8,9 C 4,4 C 90 % 1008,7 hPa 0,0 l/m 0 min 0 min 0 W/m 12,9 km/h (3 Bft) 100,00 %
08.11.2023 19:12 9,4 C 8,9 C 4,4 C 90 % 1008,8 hPa 0,0 l/m 0 min 0 min 0 W/m 12,9 km/h (3 Bft) 100,00 %
08.11.2023 19:14 9,4 C 8,9 C 4,4 C 90 % 1008,8 hPa 0,0 l/m 0 min 0 min 0 W/m 12,9 km/h (3 Bft) 100,00 %
08.11.2023 19:16 9,4 C 8,9 C 4,4 C 90 % 1008,7 hPa 0,0 l/m 0 min 0 min 0 W/m 19,3 km/h (3 Bft) 100,00 %
08.11.2023 19:18 9,4 C 8,9 C 4,4 C 90 % 1008,7 hPa 0,0 l/m 0 min 2 min 0 W/m 12,9 km/h (3 Bft) 100,00 %
08.11.2023 19:20 9,4 C 8,9 C 4,4 C 90 % 1008,7 hPa 0,0 l/m 0 min 2 min 0 W/m 9,7 km/h (2 Bft) 100,00 %
08.11.2023 19:22 9,4 C 8,9 C 4,4 C 90 % 1008,6 hPa 0,0 l/m 0 min 2 min 0 W/m 6,4 km/h (2 Bft) 97,87 %
08.11.2023 19:24 9,4 C 8,3 C 4,4 C 90 % 1008,7 hPa 0,0 l/m 0 min 2 min 0 W/m 9,7 km/h (2 Bft) 100,00 %
08.11.2023 19:26 9,4 C 8,3 C 4,4 C 91 % 1008,6 hPa 0,2 l/m 0 min 2 min 0 W/m 12,9 km/h (3 Bft) 100,00 %
08.11.2023 19:28 9,4 C 8,3 C 4,4 C 91 % 1008,5 hPa 0,0 l/m 0 min 2 min 0 W/m 16,1 km/h (3 Bft) 100,00 %
08.11.2023 19:30 9,4 C 8,3 C 4,4 C 91 % 1008,5 hPa 0,0 l/m 0 min 2 min 0 W/m 16,1 km/h (3 Bft) 100,00 %
08.11.2023 19:32 9,3 C 8,3 C 4,4 C 91 % 1008,5 hPa 0,0 l/m 0 min 0 min 0 W/m 12,9 km/h (3 Bft) 100,00 %
08.11.2023 19:34 9,3 C 8,3 C 4,4 C 91 % 1008,5 hPa 0,0 l/m 0 min 0 min 0 W/m 12,9 km/h (3 Bft) 100,00 %
08.11.2023 19:36 9,3 C 8,3 C 4,4 C 91 % 1008,5 hPa 0,0 l/m 0 min 0 min 0 W/m 16,1 km/h (3 Bft) 100,00 %
08.11.2023 19:38 9,3 C 8,3 C 4,4 C 91 % 1008,5 hPa 0,0 l/m 0 min 2 min 0 W/m 12,9 km/h (3 Bft) 97,87 %
08.11.2023 19:40 9,3 C 8,3 C 4,4 C 91 % 1008,5 hPa 0,0 l/m 0 min 0 min 0 W/m 12,9 km/h (3 Bft) 97,87 %
08.11.2023 19:42 9,3 C 8,3 C 4,4 C 92 % 1008,4 hPa 0,0 l/m 0 min 0 min 0 W/m 6,4 km/h (2 Bft) 100,00 %
08.11.2023 19:44 9,3 C 8,3 C 4,4 C 92 % 1008,4 hPa 0,0 l/m 0 min 0 min 0 W/m 6,4 km/h (2 Bft) 53,49 %
08.11.2023 19:46 9,3 C 8,3 C 4,4 C 92 % 1008,3 hPa 0,0 l/m 0 min 0 min 0 W/m 9,7 km/h (2 Bft) 97,87 %
08.11.2023 19:48 9,2 C 8,3 C 4,4 C 92 % 1008,4 hPa 0,0 l/m 0 min 0 min 0 W/m 6,4 km/h (2 Bft) 97,87 %
08.11.2023 19:50 9,2 C 8,3 C 4,4 C 92 % 1008,3 hPa 0,0 l/m 0 min 0 min 0 W/m 16,1 km/h (3 Bft) 95,65 %
08.11.2023 19:52 9,2 C 8,3 C 4,4 C 92 % 1008,3 hPa 0,0 l/m 0 min 0 min 0 W/m 6,4 km/h (2 Bft) 95,74 %
08.11.2023 19:54 9,2 C 8,3 C 4,4 C 92 % 1008,3 hPa 0,0 l/m 0 min 0 min 0 W/m 12,9 km/h (3 Bft) 97,87 %
08.11.2023 19:56 9,2 C 8,3 C 4,4 C 92 % 1008,3 hPa 0,0 l/m 0 min 0 min 0 W/m 19,3 km/h (3 Bft) 95,74 %
08.11.2023 19:58 9,2 C 8,3 C 4,4 C 92 % 1008,3 hPa 0,0 l/m 0 min 0 min 0 W/m 16,1 km/h (3 Bft) 97,87 %
08.11.2023 20:00 9,2 C 8,3 C 4,4 C 92 % 1008,3 hPa 0,0 l/m 0 min 2 min 0 W/m 16,1 km/h (3 Bft) 95,74 %
08.11.2023 20:02 9,2 C 8,3 C 4,4 C 93 % 1008,3 hPa 0,0 l/m 0 min 2 min 0 W/m 16,1 km/h (3 Bft) 97,87 %
08.11.2023 20:04 9,2 C 8,3 C 4,4 C 93 % 1008,3 hPa 0,0 l/m 0 min 0 min 0 W/m 12,9 km/h (3 Bft) 94,12 %
08.11.2023 20:05 9,2 C 8,3 C 4,4 C 93 % 1008,2 hPa 0,0 l/m 0 min 0 min 0 W/m 16,1 km/h (3 Bft) 98,25 %
08.11.2023 20:10 9,2 C 8,3 C 4,4 C 93 % 1008,2 hPa 0,0 l/m 0 min 5 min 0 W/m 16,1 km/h (3 Bft) 94,87 %
08.11.2023 20:12 9,2 C 8,3 C 4,4 C 93 % 1008,2 hPa 0,0 l/m 0 min 2 min 0 W/m 9,7 km/h (2 Bft) 93,62 %
08.11.2023 20:14 9,2 C 8,3 C 4,4 C 93 % 1008,3 hPa 0,0 l/m 0 min 0 min 0 W/m 12,9 km/h (3 Bft) 95,74 %
08.11.2023 20:16 9,2 C 8,3 C 4,4 C 93 % 1008,2 hPa 0,0 l/m 0 min 2 min 0 W/m 12,9 km/h (3 Bft) 91,49 %
08.11.2023 20:18 9,2 C 8,3 C 4,4 C 93 % 1008,2 hPa 0,0 l/m 0 min 2 min 0 W/m 12,9 km/h (3 Bft) 95,74 %
08.11.2023 20:20 9,3 C 8,3 C 4,4 C 93 % 1008,2 hPa 0,0 l/m 0 min 2 min 0 W/m 6,4 km/h (2 Bft) 95,65 %
08.11.2023 20:22 9,2 C 8,3 C 4,4 C 93 % 1008,2 hPa 0,0 l/m 0 min 0 min 0 W/m 6,4 km/h (2 Bft) 95,74 %
08.11.2023 20:24 9,3 C 8,3 C 4,4 C 93 % 1008,1 hPa 0,2 l/m 0 min 2 min 0 W/m 16,1 km/h (3 Bft) 97,87 %
08.11.2023 20:26 9,3 C 8,3 C 4,4 C 93 % 1008,1 hPa 0,0 l/m 0 min 2 min 0 W/m 6,4 km/h (2 Bft) 97,87 %
08.11.2023 20:28 9,2 C 8,3 C 4,4 C 93 % 1008,1 hPa 0,0 l/m 0 min 2 min 0 W/m 12,9 km/h (3 Bft) 97,87 %
08.11.2023 20:30 9,2 C 8,3 C 4,4 C 94 % 1008,1 hPa 0,0 l/m 0 min 2 min 0 W/m 6,4 km/h (2 Bft) 97,87 %
08.11.2023 20:32 9,2 C 8,3 C 4,4 C 94 % 1008,1 hPa 0,0 l/m 0 min 2 min 0 W/m 6,4 km/h (2 Bft) 97,87 %
08.11.2023 20:34 9,2 C 8,3 C 4,4 C 94 % 1008,2 hPa 0,0 l/m 0 min 2 min 0 W/m 12,9 km/h (3 Bft) 100,00 %
08.11.2023 20:36 9,2 C 8,3 C 4,4 C 94 % 1008,2 hPa 0,0 l/m 0 min 2 min 0 W/m 19,3 km/h (3 Bft) 97,87 %
08.11.2023 20:38 9,2 C 8,3 C 4,4 C 94 % 1008,2 hPa 0,2 l/m 0 min 2 min 0 W/m 3,2 km/h (1 Bft) 100,00 %
08.11.2023 20:40 9,2 C 8,3 C 4,4 C 94 % 1008,1 hPa 0,0 l/m 0 min 0 min 0 W/m 12,9 km/h (3 Bft) 97,87 %
08.11.2023 20:42 9,2 C 8,3 C 4,4 C 94 % 1008,1 hPa 0,0 l/m 0 min 0 min 0 W/m 12,9 km/h (3 Bft) 97,87 %
08.11.2023 20:44 9,2 C 8,3 C 4,4 C 94 % 1008,1 hPa 0,0 l/m 0 min 0 min 0 W/m 16,1 km/h (3 Bft) 95,74 %
08.11.2023 20:46 9,2 C 8,3 C 4,4 C 94 % 1008,1 hPa 0,0 l/m 0 min 0 min 0 W/m 6,4 km/h (2 Bft) 97,87 %
08.11.2023 20:48 9,2 C 8,3 C 4,4 C 94 % 1008,1 hPa 0,0 l/m 0 min 2 min 0 W/m 6,4 km/h (2 Bft) 97,87 %
08.11.2023 20:50 9,2 C 8,3 C 4,4 C 94 % 1008,0 hPa 0,0 l/m 0 min 2 min 0 W/m 12,9 km/h (3 Bft) 97,83 %
08.11.2023 20:52 9,2 C 8,3 C 4,4 C 94 % 1008,0 hPa 0,2 l/m 0 min 2 min 0 W/m 6,4 km/h (2 Bft) 97,87 %
08.11.2023 20:54 9,1 C 8,3 C 4,4 C 95 % 1008,0 hPa 0,0 l/m 0 min 2 min 0 W/m 6,4 km/h (2 Bft) 98,25 %
08.11.2023 20:56 9,1 C 8,3 C 4,4 C 95 % 1008,0 hPa 0,2 l/m 0 min 2 min 0 W/m 6,4 km/h (2 Bft) 93,62 %
08.11.2023 20:58 9,1 C 8,3 C 4,4 C 95 % 1008,0 hPa 0,2 l/m 0 min 2 min 0 W/m 12,9 km/h (3 Bft) 97,87 %
08.11.2023 21:00 9,1 C 7,8 C 4,4 C 95 % 1007,9 hPa 0,0 l/m 0 min 2 min 0 W/m 6,4 km/h (2 Bft) 97,87 %
08.11.2023 21:02 9,1 C 7,8 C 4,4 C 95 % 1007,9 hPa 0,2 l/m 0 min 2 min 0 W/m 12,9 km/h (3 Bft) 95,74 %
08.11.2023 21:04 9,1 C 7,8 C 4,4 C 95 % 1007,9 hPa 0,2 l/m 0 min 2 min 0 W/m 12,9 km/h (3 Bft) 97,73 %
08.11.2023 21:10 9,1 C 7,8 C 4,4 C 95 % 1007,9 hPa 0,4 l/m 0 min 5 min 0 W/m 12,9 km/h (3 Bft) 97,79 %
08.11.2023 21:12 9,0 C 7,8 C 4,4 C 95 % 1007,8 hPa 0,2 l/m 0 min 2 min 0 W/m 9,7 km/h (2 Bft) 97,87 %
08.11.2023 21:14 9,0 C 7,8 C 4,4 C 95 % 1007,8 hPa 0,2 l/m 0 min 2 min 0 W/m 12,9 km/h (3 Bft) 97,87 %
08.11.2023 21:16 9,1 C 8,3 C 4,4 C 95 % 1007,8 hPa 0,0 l/m 0 min 2 min 0 W/m 16,1 km/h (3 Bft) 93,62 %
08.11.2023 21:18 9,1 C 8,3 C 5,0 C 95 % 1007,7 hPa 0,0 l/m 0 min 2 min 0 W/m 6,4 km/h (2 Bft) 95,74 %
08.11.2023 21:20 9,1 C 8,3 C 5,0 C 95 % 1007,7 hPa 0,2 l/m 0 min 0 min 0 W/m 9,7 km/h (2 Bft) 97,87 %
08.11.2023 21:22 9,1 C 8,3 C 5,0 C 95 % 1007,7 hPa 0,0 l/m 0 min 0 min 0 W/m 12,9 km/h (3 Bft) 97,87 %
08.11.2023 21:24 9,1 C 8,3 C 5,0 C 96 % 1007,7 hPa 0,0 l/m 0 min 2 min 0 W/m 16,1 km/h (3 Bft) 97,83 %
08.11.2023 21:26 9,1 C 8,3 C 5,0 C 96 % 1007,7 hPa 0,0 l/m 0 min 2 min 0 W/m 6,4 km/h (2 Bft) 97,87 %
08.11.2023 21:28 9,1 C 8,3 C 5,0 C 96 % 1007,8 hPa 0,0 l/m 0 min 2 min 0 W/m 6,4 km/h (2 Bft) 97,87 %
08.11.2023 21:30 9,1 C 8,3 C 5,0 C 96 % 1007,7 hPa 0,0 l/m 0 min 2 min 0 W/m 3,2 km/h (1 Bft) 97,87 %
08.11.2023 21:32 9,1 C 8,3 C 5,0 C 96 % 1007,8 hPa 0,0 l/m 0 min 2 min 0 W/m 6,4 km/h (2 Bft) 97,87 %
08.11.2023 21:34 9,1 C 8,3 C 5,0 C 96 % 1007,8 hPa 0,0 l/m 0 min 2 min 0 W/m 9,7 km/h (2 Bft) 93,62 %
08.11.2023 21:36 9,1 C 8,3 C 5,0 C 96 % 1007,7 hPa 0,0 l/m 0 min 2 min 0 W/m 3,2 km/h (1 Bft) 100,00 %
08.11.2023 21:38 9,2 C 8,3 C 5,0 C 96 % 1007,7 hPa 0,0 l/m 0 min 0 min 0 W/m 6,4 km/h (2 Bft) 100,00 %
08.11.2023 21:40 9,2 C 8,3 C 5,0 C 96 % 1007,7 hPa 0,0 l/m 0 min 2 min 0 W/m 6,4 km/h (2 Bft) 97,87 %
08.11.2023 21:42 9,2 C 8,3 C 5,0 C 96 % 1007,6 hPa 0,0 l/m 0 min 2 min 0 W/m 12,9 km/h (3 Bft) 95,74 %
08.11.2023 21:44 9,2 C 8,3 C 5,0 C 96 % 1007,6 hPa 0,0 l/m 0 min 0 min 0 W/m 6,4 km/h (2 Bft) 100,00 %
08.11.2023 21:46 9,2 C 8,3 C 5,0 C 96 % 1007,7 hPa 0,0 l/m 0 min 0 min 0 W/m 6,4 km/h (2 Bft) 100,00 %
08.11.2023 21:48 9,2 C 8,3 C 5,0 C 96 % 1007,6 hPa 0,2 l/m 0 min 0 min 0 W/m 6,4 km/h (2 Bft) 97,87 %
08.11.2023 21:50 9,2 C 8,3 C 5,0 C 96 % 1007,5 hPa 0,0 l/m 0 min 0 min 0 W/m 6,4 km/h (2 Bft) 95,74 %
08.11.2023 21:52 9,2 C 8,3 C 5,0 C 96 % 1007,5 hPa 0,0 l/m 0 min 0 min 0 W/m 12,9 km/h (3 Bft) 97,87 %
08.11.2023 21:54 9,2 C 8,3 C 5,0 C 96 % 1007,5 hPa 0,0 l/m 0 min 0 min 0 W/m 3,2 km/h (1 Bft) 98,04 %
08.11.2023 21:56 9,2 C 8,3 C 5,0 C 96 % 1007,5 hPa 0,0 l/m 0 min 2 min 0 W/m 3,2 km/h (1 Bft) 95,74 %
08.11.2023 21:58 9,2 C 8,3 C 5,0 C 96 % 1007,4 hPa 0,0 l/m 0 min 2 min 0 W/m 16,1 km/h (3 Bft) 97,87 %
08.11.2023 22:00 9,2 C 8,3 C 5,0 C 96 % 1007,4 hPa 0,0 l/m 0 min 2 min 0 W/m 6,4 km/h (2 Bft) 97,83 %
08.11.2023 22:02 9,2 C 8,3 C 5,0 C 96 % 1007,4 hPa 0,0 l/m 0 min 2 min 0 W/m 6,4 km/h (2 Bft) 97,87 %
08.11.2023 22:04 9,2 C 8,3 C 5,0 C 96 % 1007,4 hPa 0,2 l/m 0 min 2 min 0 W/m 6,4 km/h (2 Bft) 95,45 %
08.11.2023 22:06 9,2 C 8,3 C 5,0 C 96 % 1007,4 hPa 0,0 l/m 0 min 2 min 0 W/m 6,4 km/h (2 Bft) 95,74 %
08.11.2023 22:08 9,2 C 8,3 C 5,0 C 96 % 1007,3 hPa 0,0 l/m 0 min 2 min 0 W/m 12,9 km/h (3 Bft) 95,74 %
08.11.2023 22:10 9,2 C 8,3 C 5,0 C 96 % 1007,3 hPa 0,2 l/m 0 min 2 min 0 W/m 6,4 km/h (2 Bft) 95,74 %
08.11.2023 22:12 9,3 C 8,3 C 5,0 C 96 % 1007,3 hPa 0,0 l/m 0 min 2 min 0 W/m 6,4 km/h (2 Bft) 95,74 %
08.11.2023 22:14 9,3 C 8,3 C 5,0 C 96 % 1007,2 hPa 0,0 l/m 0 min 2 min 0 W/m 12,9 km/h (3 Bft) 95,74 %
08.11.2023 22:16 9,3 C 8,3 C 5,0 C 97 % 1007,3 hPa 0,0 l/m 0 min 2 min 0 W/m 12,9 km/h (3 Bft) 95,65 %
08.11.2023 22:18 9,3 C 8,3 C 5,0 C 97 % 1007,2 hPa 0,0 l/m 0 min 2 min 0 W/m 6,4 km/h (2 Bft) 93,62 %
08.11.2023 22:20 9,3 C 8,3 C 5,0 C 97 % 1007,2 hPa 0,0 l/m 0 min 2 min 0 W/m 6,4 km/h (2 Bft) 95,74 %
08.11.2023 22:22 9,3 C 8,3 C 5,0 C 97 % 1007,2 hPa 0,2 l/m 0 min 2 min 0 W/m 3,2 km/h (1 Bft) 97,87 %
08.11.2023 22:24 9,3 C 8,3 C 5,0 C 97 % 1007,1 hPa 0,0 l/m 0 min 0 min 0 W/m 3,2 km/h (1 Bft) 97,87 %
08.11.2023 22:26 9,4 C 8,3 C 5,0 C 97 % 1007,2 hPa 0,0 l/m 0 min 0 min 0 W/m 12,9 km/h (3 Bft) 97,87 %
08.11.2023 22:28 9,4 C 8,3 C 5,0 C 97 % 1007,1 hPa 0,0 l/m 0 min 2 min 0 W/m 9,7 km/h (2 Bft) 97,83 %
08.11.2023 22:30 9,4 C 8,3 C 5,0 C 97 % 1007,0 hPa 0,2 l/m 0 min 2 min 0 W/m 12,9 km/h (3 Bft) 95,74 %
08.11.2023 22:32 9,4 C 8,3 C 5,0 C 97 % 1007,0 hPa 0,0 l/m 0 min 2 min 0 W/m 6,4 km/h (2 Bft) 91,49 %
08.11.2023 22:34 9,4 C 8,3 C 5,0 C 97 % 1007,0 hPa 0,0 l/m 0 min 2 min 0 W/m 9,7 km/h (2 Bft) 97,67 %
08.11.2023 22:36 9,4 C 8,3 C 5,0 C 97 % 1007,0 hPa 0,0 l/m 0 min 0 min 0 W/m 6,4 km/h (2 Bft) 95,74 %
08.11.2023 22:38 9,4 C 8,3 C 5,0 C 97 % 1007,0 hPa 0,0 l/m 0 min 2 min 0 W/m 12,9 km/h (3 Bft) 91,30 %
08.11.2023 22:40 9,4 C 8,9 C 5,0 C 97 % 1006,9 hPa 0,0 l/m 0 min 0 min 0 W/m 6,4 km/h (2 Bft) 97,87 %
08.11.2023 22:42 9,4 C 8,9 C 5,0 C 97 % 1006,9 hPa 0,0 l/m 0 min 2 min 0 W/m 6,4 km/h (2 Bft) 97,87 %
08.11.2023 22:44 9,4 C 8,9 C 5,0 C 97 % 1006,8 hPa 0,2 l/m 0 min 2 min 0 W/m 9,7 km/h (2 Bft) 100,00 %
08.11.2023 22:46 9,4 C 8,9 C 5,0 C 97 % 1006,8 hPa 0,0 l/m 0 min 2 min 0 W/m 12,9 km/h (3 Bft) 100,00 %
08.11.2023 22:48 9,4 C 8,9 C 5,0 C 97 % 1006,8 hPa 0,0 l/m 0 min 2 min 0 W/m 6,4 km/h (2 Bft) 100,00 %
08.11.2023 22:50 9,4 C 8,9 C 5,0 C 97 % 1006,7 hPa 0,0 l/m 0 min 0 min 0 W/m 6,4 km/h (2 Bft) 100,00 %
08.11.2023 22:52 9,4 C 8,9 C 5,0 C 97 % 1006,7 hPa 0,0 l/m 0 min 2 min 0 W/m 6,4 km/h (2 Bft) 100,00 %
08.11.2023 22:54 9,4 C 8,9 C 5,0 C 97 % 1006,7 hPa 0,0 l/m 0 min 2 min 0 W/m 6,4 km/h (2 Bft) 97,87 %
08.11.2023 22:56 9,4 C 8,9 C 5,0 C 97 % 1006,6 hPa 0,0 l/m 0 min 2 min 0 W/m 12,9 km/h (3 Bft) 97,87 %
08.11.2023 22:58 9,4 C 8,9 C 5,0 C 97 % 1006,7 hPa 0,2 l/m 0 min 2 min 0 W/m 12,9 km/h (3 Bft) 100,00 %
08.11.2023 23:00 9,4 C 8,9 C 5,0 C 97 % 1006,6 hPa 0,0 l/m 0 min 0 min 0 W/m 12,9 km/h (3 Bft) 100,00 %
08.11.2023 23:02 9,4 C 8,9 C 5,0 C 97 % 1006,6 hPa 0,0 l/m 0 min 2 min 0 W/m 9,7 km/h (2 Bft) 100,00 %
08.11.2023 23:04 9,4 C 8,9 C 5,0 C 97 % 1006,6 hPa 0,0 l/m 0 min 2 min 0 W/m 16,1 km/h (3 Bft) 100,00 %
08.11.2023 23:08 9,5 C 8,9 C 5,0 C 97 % 1006,5 hPa 0,0 l/m 0 min 4 min 0 W/m 16,1 km/h (3 Bft) 100,00 %
08.11.2023 23:09 9,5 C 8,9 C 5,0 C 97 % 1006,5 hPa 0,0 l/m 0 min 1 min 0 W/m 16,1 km/h (3 Bft) 100,00 %
08.11.2023 23:10 9,5 C 8,9 C 5,0 C 97 % 1006,5 hPa 0,0 l/m 0 min 1 min 0 W/m 16,1 km/h (3 Bft) 100,00 %
08.11.2023 23:14 9,5 C 8,9 C 5,0 C 97 % 1006,5 hPa 0,4 l/m 0 min 4 min 0 W/m 12,9 km/h (3 Bft) 100,00 %
08.11.2023 23:16 9,5 C 8,9 C 5,0 C 97 % 1006,6 hPa 0,0 l/m 0 min 2 min 0 W/m 9,7 km/h (2 Bft) 100,00 %
08.11.2023 23:18 9,5 C 8,3 C 5,0 C 97 % 1006,4 hPa 0,2 l/m 0 min 2 min 0 W/m 9,7 km/h (2 Bft) 97,87 %
08.11.2023 23:20 9,5 C 8,3 C 5,0 C 97 % 1006,4 hPa 0,2 l/m 0 min 2 min 0 W/m 6,4 km/h (2 Bft) 100,00 %
08.11.2023 23:22 9,5 C 8,3 C 5,0 C 97 % 1006,4 hPa 0,0 l/m 0 min 2 min 0 W/m 6,4 km/h (2 Bft) 100,00 %
08.11.2023 23:24 9,5 C 8,3 C 5,0 C 97 % 1006,4 hPa 0,2 l/m 0 min 2 min 0 W/m 6,4 km/h (2 Bft) 100,00 %
08.11.2023 23:26 9,5 C 8,3 C 5,0 C 97 % 1006,3 hPa 0,2 l/m 0 min 2 min 0 W/m 9,7 km/h (2 Bft) 97,87 %
08.11.2023 23:28 9,5 C 8,3 C 5,0 C 97 % 1006,4 hPa 0,0 l/m 0 min 2 min 0 W/m 32,2 km/h (5 Bft) 100,00 %
08.11.2023 23:30 9,5 C 8,3 C 5,0 C 97 % 1006,3 hPa 0,2 l/m 0 min 2 min 0 W/m 3,2 km/h (1 Bft) 100,00 %
08.11.2023 23:32 9,5 C 8,3 C 5,0 C 97 % 1006,3 hPa 0,0 l/m 0 min 2 min 0 W/m 16,1 km/h (3 Bft) 100,00 %
08.11.2023 23:34 9,4 C 8,3 C 5,0 C 97 % 1006,2 hPa 0,0 l/m 0 min 0 min 0 W/m 19,3 km/h (3 Bft) 97,87 %
08.11.2023 23:36 9,4 C 8,3 C 5,6 C 97 % 1006,2 hPa 0,0 l/m 0 min 0 min 0 W/m 12,9 km/h (3 Bft) 100,00 %
08.11.2023 23:38 9,5 C 8,3 C 5,6 C 97 % 1006,1 hPa 0,0 l/m 0 min 0 min 0 W/m 6,4 km/h (2 Bft) 100,00 %
08.11.2023 23:40 9,4 C 8,3 C 5,0 C 97 % 1006,1 hPa 0,0 l/m 0 min 0 min 0 W/m 12,9 km/h (3 Bft) 97,87 %
08.11.2023 23:42 9,5 C 8,9 C 5,6 C 97 % 1006,1 hPa 0,0 l/m 0 min 0 min 0 W/m 16,1 km/h (3 Bft) 97,87 %
08.11.2023 23:44 9,5 C 8,9 C 5,6 C 97 % 1006,1 hPa 0,0 l/m 0 min 0 min 0 W/m 12,9 km/h (3 Bft) 95,65 %
08.11.2023 23:46 9,5 C 8,9 C 5,6 C 97 % 1006,1 hPa 0,0 l/m 0 min 0 min 0 W/m 19,3 km/h (3 Bft) 97,30 %
08.11.2023 23:48 9,5 C 8,9 C 5,6 C 97 % 1006,1 hPa 0,0 l/m 0 min 0 min 0 W/m 22,5 km/h (4 Bft) 95,74 %
08.11.2023 23:50 9,5 C 8,9 C 5,6 C 97 % 1006,0 hPa 0,0 l/m 0 min 0 min 0 W/m 16,1 km/h (3 Bft) 93,62 %
08.11.2023 23:52 9,5 C 8,9 C 5,6 C 97 % 1006,0 hPa 0,0 l/m 0 min 0 min 0 W/m 22,5 km/h (4 Bft) 95,74 %
08.11.2023 23:54 9,5 C 8,9 C 5,6 C 97 % 1006,0 hPa 0,0 l/m 0 min 0 min 0 W/m 12,9 km/h (3 Bft) 91,49 %
08.11.2023 23:56 9,6 C 8,9 C 5,6 C 97 % 1005,9 hPa 0,0 l/m 0 min 0 min 0 W/m 12,9 km/h (3 Bft) 95,83 %
08.11.2023 23:58 9,6 C 8,9 C 5,6 C 97 % 1005,9 hPa 0,0 l/m 0 min 2 min 0 W/m 16,1 km/h (3 Bft) 95,74 %
_ Min-Zeit 06:08 06:02 00:32 14:10 23:56 - - - - 17:18 16:28
Minimum _ 7,7 C 6,7 C 3,9 C 74 % 1005,9 hPa - - - - 3,2 km/h (1 Bft) 48,72 %
_ Max-Zeit 13:58 10:20 12:34 22:16 10:16 21:10 10:14 17:10 10:16 14:44 00:00
Maximum _ 11,7 C 16,1 C 7,2 C 97 % 1014,1 hPa 0,4 l/m 4 min 5 min 329 W/m 45,1 km/h
S-SW (6 Bft)
100,00 %
Durchschnitt _ 9,4 C 8,9 C 5,2 C 88 % 1011,5 hPa #6,2 l/m #42 min. #4:39 h 88 W/m 16,2 km/h (3 Bft) 97,00 %
© 2023 W. Hausmann